GEFSSGP_con_prob3kmehi_000.txt.gz
EHI
0 0 0 0 0 0 0 0 0 0 0 0 0 0 0 0 0 0 0 1 2 2 3 3 3 3 3 3 3 3 3 3 3 3 4 4 4 3 3 3 3 3 3 2 1 1 2 3 3
0 0 0 0 0 0 0 0 0 0 0 0 0 0 0 0 0 0 0 1 2 2 3 3 3 3 3 3 3 3 3 2 3 3 3 3 3 3 3 3 3 2 2 2 1 1 2 3 3
0 0 0 0 0 0 0 0 0 0 0 0 0 0 0 0 0 0 0 1 2 2 3 3 3 3 3 3 3 3 3 3 3 3 3 3 2 3 3 3 2 1 1 1 0 0 1 1 2
0 0 0 0 0 0 0 0 0 0 0 0 0 0 0 0 0 0 0 2 4 3 3 3 3 3 3 3 3 3 3 3 3 3 3 3 3 3 3 3 2 1 0 0 0 1 1 1 2
0 0 0 0 0 0 0 1 1 1 0 0 0 0 0 1 2 1 1 4 6 4 3 3 3 3 3 3 3 3 3 3 3 2 2 2 2 2 2 2 2 1 0 0 0 1 2 2 3
0 0 0 0 0 0 0 1 2 1 0 0 0 0 0 2 4 2 1 4 5 4 3 3 3 3 3 3 3 3 3 3 2 1 1 1 1 1 1 1 1 0 0 0 0 1 1 1 2
0 0 0 0 0 0 0 1 1 1 0 0 0 0 0 3 5 3 0 1 2 2 3 3 3 3 3 3 3 3 3 3 2 1 0 0 0 0 0 0 0 0 0 0 0 0 0 1 2
0 0 0 0 0 0 0 0 0 0 0 0 0 0 1 6 9 4 0 0 0 1 2 3 3 3 3 3 3 3 3 2 1 0 0 0 0 0 0 0 0 0 0 0 0 0 0 1 2
0 0 0 0 0 0 1 0 0 0 0 2 7 9 6 9 13 6 0 0 0 0 1 3 3 3 3 3 3 2 1 1 0 0 0 0 0 0 0 0 0 0 0 0 0 0 0 0 1
0 0 0 0 0 0 0 0 0 0 0 6 21 26 13 7 10 5 1 0 0 0 1 2 3 3 3 3 3 1 0 0 0 0 0 0 0 0 0 0 0 0 0 0 0 0 0 0 0
0 0 0 0 0 0 0 0 0 0 0 6 25 35 21 8 7 4 1 0 0 0 0 1 2 3 3 3 2 1 0 0 0 0 0 0 0 0 0 0 0 0 0 0 0 0 0 0 0
0 0 0 0 0 0 0 0 0 0 0 3 20 39 39 22 12 11 8 3 0 0 0 1 2 3 3 2 1 0 0 0 0 0 0 0 0 0 0 0 0 0 0 0 0 0 0 0 0
0 0 0 0 0 0 0 0 0 0 0 1 16 46 56 42 34 38 34 19 7 3 4 5 4 3 3 2 0 0 0 0 0 0 0 0 0 0 0 0 0 0 0 0 0 0 0 0 0
0 0 0 0 0 0 0 0 0 0 0 1 16 44 56 55 63 72 65 43 20 11 16 21 13 6 4 2 0 0 0 0 0 0 0 0 0 0 0 0 0 0 0 0 0 0 0 0 0
0 0 0 0 0 0 0 0 0 1 0 1 12 28 40 54 73 81 73 51 30 24 39 49 36 18 9 3 0 0 0 0 0 0 0 0 0 0 0 0 0 0 0 0 0 0 0 0 0
0 0 0 0 0 0 0 0 2 3 2 1 6 11 18 35 54 60 52 37 30 42 63 73 62 36 14 4 1 0 0 0 0 0 0 0 0 0 0 0 0 0 0 0 0 0 0 0 0
0 0 0 0 0 0 0 1 6 11 9 6 4 3 4 12 23 28 25 19 24 47 73 82 73 49 21 6 2 2 1 0 0 0 0 0 0 0 0 0 0 0 0 0 0 0 0 0 0
0 0 0 0 0 0 0 3 11 18 18 13 7 2 0 1 4 6 9 13 24 47 74 85 80 64 40 17 6 4 1 0 0 0 0 0 0 0 0 0 0 0 0 0 0 0 0 0 0
0 0 0 0 0 0 0 3 9 13 14 12 7 2 0 0 0 0 4 19 42 64 80 89 87 80 60 31 12 4 1 0 0 0 0 0 0 0 0 0 0 0 0 0 0 0 0 0 0
0 0 0 0 0 0 0 1 2 4 4 4 3 1 0 0 0 0 7 32 64 81 86 89 87 77 57 32 11 3 1 0 0 0 0 0 0 0 0 0 0 0 0 0 0 0 0 0 0
0 0 0 0 0 0 0 0 0 0 0 0 0 0 0 0 2 5 17 48 75 82 79 77 73 61 40 18 6 1 0 0 0 0 0 0 0 0 0 0 0 0 0 0 0 0 0 0 0
0 0 0 0 0 0 0 0 0 0 0 0 0 3 8 14 20 26 37 57 68 65 59 51 47 40 22 6 1 1 0 0 0 0 0 0 0 0 0 0 0 0 0 0 0 0 0 0 0
0 0 0 0 0 0 0 0 0 0 0 0 1 6 17 27 36 38 39 43 40 33 29 24 18 14 7 1 0 0 0 0 0 0 0 0 0 0 0 1 1 0 0 0 0 0 0 0 0
0 0 0 0 0 0 0 0 0 0 0 0 1 5 13 19 22 21 17 15 11 8 7 6 3 1 0 0 0 0 0 0 0 0 0 0 0 0 0 1 1 0 0 0 0 0 0 0 0
0 0 0 0 0 0 0 0 0 0 0 0 0 1 3 3 3 2 1 0 0 0 0 0 0 0 0 0 0 0 0 0 0 0 0 0 0 0 0 1 1 0 0 0 0 0 0 0 0
0 0 0 0 0 0 0 0 0 0 0 0 0 0 0 0 0 0 0 0 0 0 0 0 0 0 0 0 0 0 0 0 0 0 0 0 0 0 0 0 0 0 0 0 0 0 0 0 0
0 0 0 0 0 0 0 0 0 0 0 0 0 0 0 0 0 0 0 0 0 0 0 0 0 0 0 0 0 0 0 0 0 0 0 0 0 0 0 0 0 0 0 0 0 0 0 0 0
0 0 0 0 0 0 0 0 0 0 0 0 0 0 0 0 0 0 0 0 0 0 0 0 0 0 0 0 0 0 0 0 0 0 0 0 0 0 0 0 0 0 0 0 0 0 0 0 0
0 0 0 0 0 0 0 0 0 0 0 0 0 0 0 0 0 0 0 0 0 0 0 0 0 0 0 0 0 0 0 0 0 0 0 0 0 0 0 0 0 0 0 0 0 0 0 0 0
0 0 0 0 0 0 0 0 0 0 0 0 0 0 0 0 0 0 0 0 0 0 0 0 0 0 0 0 0 0 0 0 0 0 0 0 0 0 0 0 0 0 0 0 0 0 0 0 0

GEFSSGP_con_prob3kmehi_006.txt.gz
EHI
0 0 0 0 0 0 0 0 0 0 0 0 0 0 0 0 0 0 0 0 0 0 0 0 0 0 0 0 0 0 0 0 0 0 0 0 0 0 0 0 0 0 0 0 0 0 0 0 0
0 0 0 0 0 0 0 0 0 0 0 0 0 0 0 0 0 0 0 0 0 0 0 0 0 0 0 0 0 0 0 0 0 0 0 0 0 0 0 0 0 0 0 0 0 0 0 0 0
0 0 0 0 0 0 0 0 0 0 0 0 0 0 0 0 0 0 0 0 0 0 0 0 0 0 0 0 0 0 0 0 0 0 0 0 0 0 0 0 0 0 0 0 0 0 0 0 0
0 0 0 0 0 0 0 0 0 0 0 0 0 0 0 0 0 0 0 0 0 0 0 0 0 0 0 0 0 0 0 0 0 0 0 0 0 0 0 0 0 0 0 0 0 0 0 0 0
0 0 0 0 0 0 0 0 0 0 0 0 0 0 0 0 0 0 0 0 0 0 0 0 0 0 0 0 0 0 0 0 0 0 0 0 0 0 0 0 0 0 0 0 0 0 0 0 0
0 0 0 0 0 0 0 0 0 0 0 0 0 0 0 0 0 0 0 0 0 0 0 0 0 0 0 0 0 0 0 0 0 0 0 0 0 0 0 0 0 0 0 0 0 0 0 0 0
0 0 0 0 0 0 0 0 0 0 0 0 0 0 0 0 0 0 0 0 0 0 0 0 0 0 0 0 0 0 0 0 0 0 0 0 0 0 0 0 0 0 0 0 0 0 0 0 0
0 0 0 0 0 0 0 0 0 0 0 0 0 0 0 0 0 0 0 0 0 0 0 0 0 0 0 0 0 0 0 0 0 0 0 0 0 0 0 0 0 0 0 0 0 0 0 0 0
0 0 0 0 0 0 0 0 0 0 0 0 0 1 3 3 2 0 0 0 0 0 0 0 0 0 0 0 0 0 0 0 0 0 0 0 0 0 0 0 0 0 0 0 0 0 0 0 0
0 0 0 0 0 0 0 0 0 0 0 0 1 10 22 21 8 0 0 0 0 0 0 0 0 0 0 0 0 0 0 0 0 0 0 0 0 0 0 0 0 0 0 0 0 0 0 0 0
0 0 0 0 0 0 0 0 0 0 0 0 5 27 52 44 16 2 0 0 0 0 0 0 0 0 0 0 0 0 0 0 0 0 0 0 0 0 0 0 0 0 0 0 0 0 0 0 0
0 0 0 0 0 0 0 0 0 0 0 0 10 41 67 53 19 2 0 0 0 0 0 0 0 0 0 0 0 0 0 0 0 0 0 0 0 0 0 0 0 0 0 0 0 0 0 0 0
0 0 0 0 0 0 0 0 0 0 0 1 14 44 65 51 22 5 0 0 0 0 0 0 0 0 0 0 0 0 0 0 0 0 0 0 0 0 0 0 0 0 0 0 0 0 0 0 0
0 0 0 0 0 0 0 0 0 0 0 1 11 32 50 48 31 12 2 0 0 0 0 0 0 0 0 0 0 0 0 0 0 0 0 0 0 0 0 0 0 0 0 0 0 0 0 0 0
0 0 0 0 0 0 0 0 0 0 0 0 4 15 28 37 34 18 4 0 0 0 0 0 0 0 0 0 0 0 0 0 0 0 0 0 0 0 0 0 0 0 0 0 0 0 0 0 0
0 0 0 0 0 0 0 0 0 0 0 0 2 10 22 31 32 22 8 2 1 0 0 0 0 0 0 0 0 0 0 0 0 0 0 0 0 0 0 0 0 0 0 0 0 0 0 0 0
0 0 0 0 0 0 0 0 0 0 0 0 2 12 25 35 38 33 25 16 9 4 2 2 1 2 3 3 1 0 0 0 0 0 0 0 0 0 0 0 0 0 0 0 0 0 0 0 0
0 0 0 0 0 0 0 0 0 0 0 0 2 9 19 27 33 37 40 37 31 26 24 25 24 26 26 17 7 3 2 0 0 0 0 0 0 0 0 0 0 0 0 0 0 0 0 0 0
0 0 0 0 0 0 0 0 0 0 0 0 1 3 7 9 12 19 27 37 48 53 54 57 62 68 62 42 24 17 9 2 0 0 0 0 0 0 0 0 0 0 0 0 0 0 0 0 0
0 0 0 0 0 0 0 0 0 0 0 0 0 0 1 1 1 2 6 17 32 44 48 55 68 78 74 55 35 24 13 3 0 0 0 0 0 0 0 0 0 0 0 0 0 0 0 0 0
0 0 0 0 0 0 0 0 0 0 0 0 0 0 0 0 0 0 0 2 8 13 15 21 32 44 47 37 23 13 6 2 0 0 0 0 0 0 0 0 0 0 0 0 0 0 0 0 0
0 0 0 0 0 0 0 0 0 0 0 0 0 0 0 0 0 0 0 0 0 0 0 2 6 11 13 11 6 2 0 0 0 0 1 0 0 0 0 0 0 0 0 0 0 0 0 0 0
0 0 0 0 0 0 0 0 0 0 0 0 0 0 0 0 0 0 0 0 0 0 0 0 0 0 0 1 1 0 0 0 0 0 0 0 0 0 0 0 0 0 0 0 0 0 0 0 0
0 0 0 0 0 0 0 0 0 0 0 0 0 0 0 0 0 0 0 0 0 0 0 0 0 0 0 0 0 0 0 0 0 0 0 0 0 0 0 0 0 0 0 0 0 0 0 0 0
0 0 0 0 0 0 0 0 0 0 0 0 0 0 0 0 0 0 0 0 0 0 0 0 0 0 0 0 0 0 0 0 0 0 0 0 0 0 0 0 0 0 0 0 0 0 0 0 0
0 0 0 0 0 0 0 0 0 0 0 0 0 0 0 0 0 0 0 0 0 0 0 0 0 0 0 0 0 0 0 0 0 0 0 0 0 0 0 0 0 0 0 0 0 0 0 0 0
0 0 0 0 0 0 0 0 0 0 0 0 0 0 0 0 0 0 0 0 0 0 0 0 0 0 0 0 0 0 0 0 0 0 0 0 0 0 0 0 0 0 0 0 0 0 0 0 0
0 0 0 0 0 0 0 0 0 0 0 0 0 0 0 0 0 0 0 0 0 0 0 0 0 0 0 0 0 0 0 0 0 0 0 0 0 0 0 0 0 0 0 0 0 0 0 0 0
0 0 0 0 0 0 0 0 0 0 0 0 0 0 0 0 0 0 0 0 0 0 0 0 0 0 0 0 0 0 0 0 0 0 0 0 0 0 0 0 0 0 0 0 0 0 0 0 0
0 0 0 0 0 0 0 0 0 0 0 0 0 0 0 0 0 0 0 0 0 0 0 0 0 0 0 0 0 0 0 0 0 0 0 0 0 0 0 0 0 0 0 0 0 0 0 0 0

GEFSSGP_con_prob3kmehi_012.txt.gz
EHI
0 0 0 0 0 0 0 0 0 0 0 0 0 0 0 0 0 0 0 0 0 0 0 0 0 0 0 0 0 0 0 0 0 0 0 0 0 0 0 0 0 0 0 0 0 0 0 0 0
0 0 0 0 0 0 0 0 0 0 0 0 0 0 0 0 0 0 0 0 0 0 0 0 0 0 0 0 0 0 0 0 0 0 0 0 0 0 0 0 0 0 0 0 0 0 0 0 0
0 0 0 0 0 0 0 0 0 0 0 0 0 0 0 0 0 0 0 0 0 0 0 0 0 0 0 0 0 0 0 0 0 0 0 0 0 0 0 0 0 0 0 0 0 0 0 0 0
0 0 0 0 0 0 0 0 0 0 0 0 0 0 0 0 0 0 0 0 0 0 0 0 0 0 0 0 0 0 0 0 0 0 0 0 0 0 0 0 0 0 0 0 0 0 0 0 0
0 0 0 0 0 0 0 0 0 0 0 0 0 0 0 0 0 0 0 0 0 0 0 0 0 0 0 0 0 0 0 0 0 0 0 0 0 0 0 0 0 0 0 0 0 0 0 0 0
0 0 0 0 0 0 0 0 0 0 0 0 0 0 0 0 0 0 0 0 0 0 0 0 0 0 0 0 0 0 0 0 0 0 0 0 0 0 0 0 0 0 0 0 0 0 0 0 0
0 0 0 0 0 0 0 0 0 0 0 0 0 0 0 0 0 0 0 0 0 0 0 0 0 0 0 0 0 0 0 0 0 0 0 0 0 0 0 0 0 0 0 0 0 0 0 0 0
0 0 0 0 0 0 0 0 0 0 0 0 0 0 0 1 0 0 0 0 0 0 0 0 0 0 0 0 0 0 0 0 0 0 0 0 0 0 0 0 0 0 0 0 0 0 0 0 0
0 0 0 0 0 0 0 0 0 0 0 0 0 0 1 3 1 0 0 0 0 0 0 0 0 0 0 0 0 0 0 0 0 0 0 0 0 0 0 0 0 0 0 0 0 0 0 0 0
0 0 0 0 0 0 0 0 0 0 0 0 0 0 3 5 2 0 0 0 0 0 0 0 0 0 0 0 0 0 0 0 0 0 0 0 0 0 0 0 0 0 0 0 0 0 0 0 0
0 0 0 0 0 0 0 0 0 0 0 0 2 5 8 7 3 0 0 0 0 0 0 0 0 0 0 0 0 0 0 0 0 0 0 0 0 0 0 0 0 0 0 0 0 0 0 0 0
0 0 0 0 0 0 0 0 0 0 0 0 5 13 14 8 2 0 0 0 0 0 0 0 0 0 0 0 0 0 0 0 0 0 0 0 0 0 0 0 0 0 0 0 0 0 0 0 0
0 0 0 0 0 0 0 0 0 0 0 0 5 14 15 7 2 0 0 0 0 0 0 0 0 0 0 0 0 0 0 0 0 0 0 0 0 0 0 0 0 0 0 0 0 0 0 0 0
0 0 0 0 0 0 0 0 0 0 0 0 2 6 8 5 2 2 3 3 1 0 0 0 0 0 0 0 0 0 0 0 0 0 0 0 0 0 0 0 0 0 0 0 0 0 0 0 0
0 0 0 0 0 0 0 0 0 0 1 1 0 1 3 3 3 4 5 5 2 0 0 0 0 0 0 0 0 0 0 0 0 0 0 0 0 0 0 0 0 0 0 0 0 0 0 0 0
0 0 0 0 0 0 0 0 0 0 1 2 2 2 4 4 3 2 3 4 2 1 0 0 0 0 0 0 0 0 0 0 0 0 0 0 0 0 0 0 0 0 0 0 0 0 0 0 0
0 0 0 0 0 0 0 0 0 0 1 2 3 6 8 8 4 1 1 1 2 1 0 0 0 0 0 2 4 4 5 5 4 1 0 0 0 0 0 0 0 0 0 0 0 0 0 0 0
0 0 0 0 0 0 0 0 0 0 0 2 5 11 16 14 8 4 4 4 4 3 2 2 2 3 5 11 18 20 21 21 16 8 2 0 0 0 0 0 0 0 0 0 0 0 0 0 0
0 0 0 0 0 0 0 0 0 1 4 7 11 18 23 19 10 7 9 12 13 12 11 10 9 10 15 25 35 41 40 35 28 17 6 1 1 0 0 0 0 0 0 0 0 0 0 0 0
0 0 0 0 0 0 0 0 0 2 6 10 14 20 23 20 13 10 12 17 21 23 22 18 16 15 20 33 49 55 49 39 31 21 10 4 3 1 0 0 0 0 0 0 0 0 0 0 0
0 0 0 0 0 0 0 0 0 1 3 5 9 15 20 24 25 19 17 21 24 24 22 21 22 23 25 38 53 60 53 41 32 26 18 10 6 3 1 0 0 0 0 0 0 0 0 0 0
0 0 0 0 0 0 0 0 0 0 0 0 3 8 15 25 31 30 28 30 32 30 28 30 35 38 38 41 48 52 47 38 34 34 29 20 12 6 2 0 0 0 0 0 0 0 0 0 0
0 0 0 0 0 0 0 0 0 0 0 0 1 3 7 14 21 25 27 30 33 37 40 43 44 45 42 35 32 31 27 24 27 31 31 27 21 12 4 1 1 0 0 0 0 0 0 0 0
0 0 0 0 0 0 0 0 0 0 0 0 0 0 2 4 7 9 12 15 18 25 34 36 35 33 27 19 14 12 11 11 14 19 24 26 24 15 6 2 3 2 0 0 0 0 0 0 0
0 0 0 0 0 0 0 0 0 0 0 0 0 0 0 0 1 1 1 2 4 8 14 16 16 14 10 5 3 2 3 4 6 9 13 17 17 11 4 3 5 4 1 0 0 0 0 0 0
0 0 0 0 0 0 0 0 0 0 0 0 0 0 0 0 0 1 1 0 0 1 2 3 3 3 1 0 0 0 0 1 3 3 5 7 7 4 1 2 4 4 1 0 0 0 0 0 0
0 0 0 0 0 0 0 0 0 0 0 0 0 0 0 0 0 1 1 0 0 0 0 0 0 0 0 0 0 0 0 0 1 1 1 2 1 0 0 0 1 1 0 0 0 0 0 0 0
0 0 0 0 0 0 0 0 0 0 0 0 0 0 0 0 0 1 1 0 0 0 0 0 0 0 0 0 0 0 0 0 0 0 0 0 0 0 0 0 0 0 0 0 0 0 0 0 0
0 0 0 0 0 0 0 0 0 0 0 0 0 0 0 0 0 0 0 0 0 0 0 0 0 0 0 0 0 0 0 0 0 0 0 0 0 0 0 0 0 0 0 0 0 0 0 0 0
0 0 0 0 0 0 0 0 0 0 0 0 0 0 0 0 0 0 0 0 0 0 0 0 0 0 0 0 0 0 0 0 0 0 0 0 0 0 0 0 0 0 0 0 0 0 0 0 0

GEFSSGP_con_prob3kmehi_018.txt.gz
EHI
0 0 0 0 0 0 0 0 0 0 0 0 0 0 0 0 0 0 0 6 12 6 0 0 0 0 0 0 0 0 0 0 0 0 0 0 0 0 0 0 0 0 0 0 0 0 0 0 0
0 0 0 0 0 0 0 0 0 0 0 0 0 0 0 0 0 0 0 3 5 3 0 0 0 0 0 0 0 0 0 0 0 0 0 0 0 0 0 0 0 0 0 0 0 0 0 0 0
0 0 0 0 0 0 0 0 0 0 0 0 0 0 0 0 0 0 0 1 2 1 0 0 0 0 0 0 0 0 0 0 0 0 0 0 0 0 0 0 0 0 0 0 0 0 0 0 0
0 0 0 0 0 0 0 0 0 0 0 0 0 0 0 0 0 0 0 1 4 4 2 0 0 0 0 0 0 0 0 0 0 0 0 0 0 0 0 0 0 0 0 0 0 0 0 0 0
0 0 0 0 0 0 0 0 0 0 0 0 0 0 0 0 0 0 0 1 6 9 5 0 0 0 0 0 0 0 0 0 0 0 0 0 0 0 0 0 0 0 0 0 0 0 0 0 0
0 0 0 0 0 0 0 0 0 0 0 0 0 0 0 0 0 0 0 1 10 16 9 0 0 0 0 0 0 0 0 0 0 0 0 0 0 0 0 0 0 0 0 0 0 0 0 0 0
0 0 0 0 0 0 0 0 0 0 0 0 0 0 0 0 0 0 0 1 12 18 10 0 0 0 0 0 0 0 0 0 0 0 0 0 0 0 0 0 0 0 0 0 0 0 0 0 0
0 0 0 0 0 0 0 0 0 0 0 0 0 0 0 0 0 0 0 1 9 15 8 0 0 0 0 0 0 0 0 0 0 0 0 0 0 1 1 2 2 2 1 1 0 0 0 0 0
0 0 0 0 0 0 0 0 0 0 0 0 0 0 0 0 0 0 0 0 4 8 5 3 2 1 0 0 1 0 0 0 0 0 0 0 0 1 3 8 14 14 6 2 0 0 0 0 0
0 0 0 0 0 0 0 0 0 0 0 0 0 0 0 0 0 0 0 0 2 3 4 8 10 5 0 2 2 1 4 6 4 2 3 2 0 1 3 14 29 24 9 2 0 0 0 0 0
0 0 0 0 0 0 0 0 0 0 0 3 8 9 4 0 0 0 0 0 1 1 2 13 19 10 1 2 2 1 10 17 12 9 11 4 0 1 6 19 28 20 6 1 0 0 0 0 0
0 0 0 0 0 0 0 0 0 1 3 12 29 31 12 0 0 0 0 1 3 2 3 15 24 14 2 1 2 1 9 17 14 15 14 5 1 4 11 21 22 11 3 1 1 0 0 0 0
0 0 0 0 0 0 0 0 0 4 13 29 52 51 22 2 0 0 0 4 7 4 5 21 33 27 13 6 4 2 4 7 9 13 13 6 5 10 15 18 15 8 3 3 2 1 0 0 0
0 0 0 0 0 0 0 0 0 6 21 40 59 58 30 6 1 2 3 7 10 6 13 33 48 51 39 20 8 3 2 3 4 10 15 13 11 15 18 16 10 5 4 4 3 1 0 0 0
0 0 0 0 0 0 0 0 0 5 18 34 49 53 39 20 11 11 15 16 14 16 31 47 52 62 65 45 20 8 4 7 10 17 27 29 21 21 25 21 14 10 8 6 3 0 0 0 0
0 0 0 0 0 0 0 0 0 2 10 21 33 44 50 45 37 33 34 30 27 39 60 59 44 55 78 74 47 22 14 21 32 41 50 50 38 35 40 34 26 23 18 11 5 1 1 0 0
0 0 0 0 0 0 0 0 0 1 4 12 26 46 62 67 65 60 50 41 46 67 84 72 47 54 80 90 74 44 32 40 52 62 69 68 59 58 62 54 42 34 29 20 9 5 3 2 1
0 0 0 0 0 0 0 0 0 0 1 7 24 49 67 75 79 73 58 49 64 85 95 87 71 68 82 93 89 72 58 55 58 64 70 72 71 75 78 70 55 46 40 29 18 11 7 3 1
0 0 0 0 0 0 0 0 0 0 2 8 26 50 68 75 78 75 66 66 80 94 99 97 92 88 90 95 95 91 82 70 61 58 59 62 67 72 74 72 68 61 51 38 26 18 11 4 1
0 0 0 0 0 0 0 0 0 2 8 21 39 58 71 74 75 77 80 84 91 98 100 100 99 98 97 97 98 97 93 81 66 58 57 57 57 56 57 67 74 70 57 42 30 23 15 6 2
0 0 0 0 0 0 0 0 1 5 16 35 54 69 78 81 81 83 88 92 95 97 98 98 99 98 97 97 97 95 90 80 69 65 64 61 54 49 51 62 71 68 57 42 29 21 13 7 4
0 0 0 0 0 0 0 0 0 6 21 41 58 71 81 85 84 84 86 88 90 91 93 94 95 95 94 94 94 93 89 83 78 76 74 68 61 55 54 58 63 63 55 41 26 17 12 8 4
0 0 0 0 0 0 0 0 0 4 23 49 66 72 72 70 68 69 70 73 76 79 80 84 88 89 86 85 86 89 90 89 87 84 80 76 70 63 54 51 53 53 47 36 23 15 12 8 5
0 0 0 0 0 0 0 0 3 11 35 66 79 70 56 44 39 40 44 48 51 54 58 65 74 76 72 70 73 79 87 88 83 80 78 76 72 62 48 39 38 38 34 26 16 10 7 5 4
0 0 0 0 0 0 0 2 13 36 62 80 79 60 40 25 16 16 20 24 26 29 35 45 54 58 58 58 62 70 78 76 69 62 59 56 52 47 35 24 21 22 19 13 7 3 2 2 2
0 0 0 0 0 0 0 3 21 49 67 68 55 37 24 14 7 5 8 13 18 21 26 35 43 48 50 51 54 62 68 62 51 40 31 26 25 23 18 11 8 7 6 3 1 0 0 0 0
0 0 0 0 0 0 0 3 15 31 37 32 23 14 9 6 4 4 6 11 17 20 24 31 38 42 42 40 38 44 47 40 30 21 12 8 7 6 4 2 1 0 0 0 0 0 0 0 0
0 0 0 0 0 0 0 2 8 13 13 9 5 3 1 1 2 3 5 7 10 13 15 19 25 28 26 22 20 20 21 17 12 8 5 2 1 0 0 0 0 0 0 0 0 0 0 0 0
0 0 0 0 0 0 0 1 4 7 6 3 1 1 0 0 0 1 1 2 3 4 5 6 9 10 9 8 7 6 5 4 3 2 1 0 0 0 0 0 0 0 0 0 0 0 0 0 0
0 0 0 0 0 0 0 0 1 2 2 1 1 0 0 0 0 0 0 0 0 0 1 1 2 2 2 2 2 2 1 1 1 1 0 0 0 0 0 0 0 0 0 0 0 0 0 0 0

GEFSSGP_con_prob3kmehi_024.txt.gz
EHI
0 0 0 0 0 0 0 0 0 0 0 0 0 0 0 0 0 0 0 0 0 0 0 0 0 0 0 0 0 0 0 0 0 0 0 0 0 0 0 0 0 0 0 0 0 0 0 0 0
0 0 0 0 0 0 0 0 0 0 0 0 0 0 0 0 0 0 0 0 0 0 0 0 0 0 0 0 0 0 0 0 0 0 0 0 0 0 0 0 0 0 0 0 0 0 0 0 0
0 0 0 0 0 0 0 0 0 0 0 0 0 0 0 0 0 0 0 0 0 0 0 0 0 0 0 0 0 0 0 0 0 0 0 0 0 0 0 0 0 0 0 0 0 0 0 0 0
0 0 0 0 0 0 0 0 0 0 0 0 0 0 0 0 0 0 0 0 0 0 0 0 0 0 0 0 0 0 0 0 0 0 0 0 0 0 0 0 0 0 0 0 0 0 0 0 0
0 0 0 0 0 0 0 0 0 0 0 0 0 0 0 1 1 1 0 0 0 0 0 0 0 0 0 0 0 0 0 0 0 0 0 0 0 0 0 0 0 0 0 0 0 0 0 0 0
0 0 0 0 0 0 0 0 0 0 0 0 0 0 0 1 1 1 0 0 0 0 0 0 0 0 0 0 0 0 0 0 0 0 0 0 0 0 0 0 0 0 0 0 0 0 0 0 0
0 0 0 0 0 0 0 0 0 0 0 0 0 0 0 0 2 3 2 0 0 0 0 0 0 0 0 0 0 0 0 0 0 0 0 0 0 0 0 0 0 0 0 0 0 0 0 0 0
0 0 0 0 0 0 0 0 0 0 0 0 0 0 0 2 8 15 11 3 0 0 0 0 0 0 0 0 0 0 0 0 0 0 0 0 0 0 0 0 0 1 1 1 1 1 0 0 0
0 0 0 0 0 0 0 0 0 1 1 1 0 0 0 4 19 35 30 11 1 0 0 0 0 0 0 0 0 0 0 0 0 0 0 0 0 0 0 0 1 2 3 3 3 2 1 0 0
0 0 0 0 0 0 0 0 0 1 1 1 0 0 0 5 24 47 46 20 3 0 0 0 0 0 0 0 0 0 0 0 0 0 0 0 0 0 0 0 1 2 3 3 3 2 1 0 0
0 0 0 0 0 0 0 0 0 0 0 0 0 0 0 4 18 38 43 23 5 0 0 0 0 0 0 0 0 0 0 0 0 0 0 0 0 0 0 0 1 1 1 1 1 1 1 0 0
0 0 0 0 0 0 0 0 0 1 1 1 0 0 0 1 7 18 23 15 4 0 0 0 0 0 0 0 0 0 0 0 0 0 0 0 0 0 0 0 0 0 0 0 0 0 0 0 0
0 0 0 0 0 0 0 0 0 2 4 3 1 0 0 0 2 5 8 6 3 1 1 0 0 0 0 0 0 0 0 0 0 0 0 0 0 0 0 0 0 0 0 0 0 0 0 0 0
0 0 0 0 0 0 0 0 0 3 6 5 1 0 0 0 0 2 5 4 3 6 7 4 1 1 1 1 0 1 1 1 0 0 0 0 0 0 0 0 0 0 0 0 0 0 0 0 0
0 0 0 0 0 0 0 0 1 8 15 14 6 3 2 3 3 5 7 5 5 12 17 13 5 4 5 4 2 2 3 3 1 0 0 0 0 0 0 1 1 0 0 0 0 0 0 0 0
0 0 0 0 0 0 0 1 3 14 31 35 25 17 13 13 13 14 14 11 8 16 25 25 20 16 14 9 5 4 5 5 3 1 0 0 0 0 1 2 2 1 0 0 0 0 0 0 0
0 0 0 0 0 0 0 1 3 16 40 56 54 45 36 31 28 25 23 19 13 16 27 34 37 36 31 21 11 6 5 4 3 1 1 1 1 1 3 4 4 3 1 1 0 0 0 0 0
0 0 0 0 0 0 0 0 2 14 40 65 74 72 63 50 42 37 32 27 21 20 28 40 47 55 57 47 32 18 8 3 1 1 1 1 2 4 4 3 4 4 4 3 1 1 0 0 0
0 0 0 0 0 0 0 1 4 16 39 64 81 86 80 67 57 52 45 37 31 30 38 46 54 67 78 76 61 39 19 7 2 1 1 1 3 5 4 3 4 6 6 5 4 2 1 0 0
0 0 0 0 0 0 0 2 6 18 38 62 80 88 86 76 68 63 57 49 45 49 54 57 64 74 85 89 81 64 43 24 11 4 1 1 2 3 3 3 5 7 7 6 4 3 1 0 0
0 0 0 0 0 0 0 1 5 16 34 57 77 86 86 80 73 70 66 62 63 67 70 69 71 76 83 89 89 81 64 41 19 6 1 0 0 1 1 2 4 5 6 5 3 2 1 0 0
0 0 0 0 0 0 0 0 2 8 25 50 72 83 84 80 76 74 72 72 74 77 78 75 70 68 71 76 79 75 60 37 16 5 1 0 1 1 1 1 1 2 3 2 1 1 1 0 0
0 0 0 0 0 0 0 0 0 3 13 34 57 69 71 70 69 68 66 65 67 70 70 65 57 49 48 53 56 53 41 24 11 4 1 0 1 2 2 1 0 0 1 1 0 0 0 0 0
0 0 0 0 0 0 0 0 0 1 5 16 32 43 47 47 47 45 44 43 46 48 46 41 33 26 26 30 32 30 24 16 9 4 1 0 1 1 1 1 0 0 0 0 0 0 0 0 0
0 0 0 0 0 0 0 0 0 0 1 5 12 19 21 23 23 23 23 22 23 25 22 16 12 10 12 14 13 12 10 8 6 3 1 0 0 0 0 0 0 0 0 0 0 0 0 0 0
0 0 0 0 0 0 0 0 0 0 1 1 3 5 7 7 7 8 10 11 13 14 10 5 3 4 5 4 3 2 1 1 1 1 1 0 0 0 0 0 0 0 0 0 0 0 0 0 0
0 0 0 0 0 0 0 0 0 0 0 0 0 1 1 1 1 2 3 6 9 10 6 2 2 2 2 1 1 0 0 0 0 0 0 0 0 0 0 0 0 0 0 0 0 0 0 0 0
0 0 0 0 0 0 0 0 0 0 0 0 0 0 0 0 0 0 0 2 4 5 3 0 0 1 0 0 0 0 0 0 0 0 0 0 0 0 0 0 0 0 0 0 0 0 0 0 0
0 0 0 0 0 0 0 0 0 0 0 0 0 0 0 0 0 0 0 0 1 1 0 0 0 0 0 0 0 0 0 0 0 0 0 0 0 0 0 0 0 0 0 0 0 0 0 0 0
0 0 0 0 0 0 0 0 0 0 0 0 0 0 0 0 0 0 0 0 0 0 0 0 0 0 0 0 0 0 0 0 0 0 0 0 0 0 0 0 0 0 0 0 0 0 0 0 0

GEFSSGP_con_prob3kmehi_030.txt.gz
EHI
0 0 0 0 0 0 0 0 0 0 0 0 0 0 0 0 0 0 0 0 0 0 0 0 0 0 0 0 0 0 0 0 0 0 0 0 0 0 0 0 0 0 0 0 0 0 0 0 0
0 0 0 0 0 0 0 0 0 0 0 0 0 0 0 0 0 0 0 0 0 0 0 0 0 0 0 0 0 0 0 0 0 0 0 0 0 0 0 0 0 0 0 0 0 0 0 0 0
0 0 0 0 0 0 0 0 0 0 0 0 0 0 0 0 0 0 0 0 0 0 0 0 0 0 0 0 0 0 0 0 0 0 0 0 0 0 0 0 0 0 0 0 0 0 0 0 0
0 0 0 0 0 0 0 0 0 0 0 0 0 0 0 0 0 0 0 0 0 0 0 0 0 0 0 0 0 0 0 0 0 0 0 0 0 0 0 0 0 0 0 0 0 0 0 0 0
0 0 0 0 0 0 0 0 0 0 0 0 0 0 0 0 0 0 0 0 0 0 0 0 0 0 0 0 0 0 0 0 0 0 0 0 0 0 0 0 0 0 0 0 0 0 0 0 0
0 0 0 0 0 0 0 0 0 0 0 0 0 0 0 0 0 0 0 0 0 0 0 0 0 0 0 0 0 0 0 0 0 0 0 0 0 0 0 0 0 0 0 0 0 0 0 0 0
0 0 0 0 0 0 0 0 0 0 0 0 0 0 0 0 0 0 0 0 0 0 0 0 0 0 0 0 0 0 0 0 0 0 0 0 0 0 0 0 0 0 0 0 0 0 0 0 0
0 0 0 0 0 0 0 0 0 0 0 0 0 0 0 0 0 0 0 0 0 0 0 0 0 0 0 0 0 0 0 0 0 0 0 0 0 0 0 0 0 0 0 0 0 0 0 0 0
0 0 0 0 0 0 0 0 0 0 0 0 0 1 3 3 1 0 0 0 0 0 0 0 0 0 0 0 0 0 0 0 0 0 0 0 0 0 0 0 0 0 0 0 0 0 0 0 0
0 0 0 0 0 0 0 0 0 0 0 0 1 8 16 13 4 0 0 0 0 0 0 0 0 0 0 0 0 0 0 0 0 0 0 0 0 0 0 0 0 0 0 0 0 0 0 0 0
0 0 0 0 0 0 0 0 0 0 0 0 4 22 37 27 8 1 0 0 0 0 0 0 0 0 0 0 0 0 0 0 0 0 0 0 0 0 0 0 0 0 0 0 0 0 0 0 0
0 0 0 0 0 0 0 0 0 0 0 0 8 33 51 36 13 2 0 0 0 0 0 0 0 0 0 0 0 0 0 0 0 0 0 0 0 0 0 0 0 0 0 0 0 0 0 0 0
0 0 0 0 0 0 0 0 0 0 0 0 8 32 48 38 18 6 2 1 0 0 0 0 0 0 0 0 0 0 0 0 0 0 0 0 0 0 0 0 0 0 0 0 0 0 0 0 0
0 0 0 0 0 0 0 0 0 0 0 0 6 21 34 32 22 13 6 3 1 0 0 0 0 0 0 0 0 0 0 0 0 0 0 0 0 0 0 0 0 0 0 0 0 0 0 0 0
0 0 0 0 0 0 0 0 0 0 0 0 3 12 19 23 23 21 15 9 5 2 1 0 0 0 0 0 0 0 0 0 0 0 0 0 0 0 0 0 0 0 0 0 0 0 0 0 0
0 0 0 0 0 0 0 0 0 0 0 1 3 6 10 14 18 21 21 18 14 9 5 2 1 0 0 1 1 0 0 0 0 0 0 0 0 0 0 0 0 0 0 0 0 0 0 0 0
0 0 0 0 0 0 0 0 0 0 1 2 4 6 7 8 10 16 21 24 23 19 13 8 6 3 1 1 1 0 0 0 0 0 0 0 0 0 0 0 0 0 0 0 0 0 0 0 0
0 0 0 0 0 0 0 0 0 0 1 3 6 9 9 9 10 15 21 26 27 24 22 20 18 14 11 12 10 7 4 2 1 1 0 0 0 0 0 0 0 0 0 0 0 0 0 0 0
0 0 0 0 0 0 0 0 0 1 3 7 12 15 17 19 21 21 24 25 24 22 23 28 32 32 34 38 36 27 18 9 4 2 1 0 0 0 0 0 0 0 0 0 0 0 0 0 0
0 0 0 0 0 0 0 0 0 2 6 13 20 23 27 32 33 30 27 25 21 19 20 26 35 44 51 58 61 53 37 21 9 4 1 0 0 0 0 0 0 0 0 0 1 0 0 0 0
0 0 0 0 0 0 0 0 0 1 6 15 19 21 26 32 32 30 26 24 21 20 20 22 27 37 48 58 64 61 48 31 16 5 1 0 0 0 0 0 0 0 0 0 0 0 0 0 1
0 0 0 0 0 0 0 0 0 1 4 8 8 9 12 15 16 17 19 19 20 19 18 18 18 23 34 45 52 53 47 33 17 6 1 0 0 1 0 0 0 0 0 0 0 0 1 1 1
0 0 0 0 0 0 0 0 0 0 1 1 1 1 2 2 4 6 9 12 15 14 13 13 14 15 20 29 38 43 40 27 12 3 0 0 0 0 0 0 0 0 0 0 0 0 0 0 1
0 0 0 0 0 0 0 0 0 0 0 0 0 0 0 0 0 1 3 6 8 9 7 8 11 11 12 17 25 30 26 15 6 1 0 0 0 0 0 0 0 0 0 0 0 0 0 0 0
0 0 0 0 0 0 0 0 0 0 0 0 0 0 0 0 0 0 0 1 3 4 4 5 7 7 7 9 12 14 10 5 1 0 0 0 0 0 0 0 0 0 0 0 0 0 0 0 0
0 0 0 0 0 0 0 0 0 0 0 0 0 0 0 0 0 0 0 0 0 1 2 3 4 4 4 3 3 3 2 0 0 0 0 0 0 0 0 0 0 0 0 0 0 0 0 0 0
0 0 0 0 0 0 0 0 0 0 0 0 0 0 0 0 0 0 0 0 0 0 1 2 3 3 2 1 0 0 0 0 0 0 0 0 0 0 0 0 0 0 0 0 0 0 0 0 0
0 0 0 0 0 0 0 0 0 0 0 0 0 0 0 0 0 0 0 0 0 0 0 2 3 2 1 0 0 0 0 0 0 0 0 0 0 0 0 0 0 0 0 0 0 0 0 0 0
0 0 0 0 0 0 0 0 0 0 0 0 0 0 0 0 0 0 0 0 0 0 0 1 2 1 0 0 0 0 0 0 0 0 0 0 0 0 0 0 0 0 0 0 0 0 0 0 0
0 0 0 0 0 0 0 0 0 0 0 0 0 0 0 0 0 0 0 0 0 0 0 0 1 0 0 0 0 0 0 0 0 0 0 0 0 0 0 0 0 0 0 0 0 0 0 0 0

GEFSSGP_con_prob3kmehi_036.txt.gz
EHI
0 0 0 0 0 0 0 0 0 0 0 0 0 0 0 0 0 0 0 0 0 0 0 0 0 0 0 0 0 0 0 0 0 0 0 0 0 0 0 0 0 0 0 0 0 0 0 0 0
0 0 0 0 0 0 0 0 0 0 0 0 0 0 0 0 0 0 0 0 0 0 0 0 0 0 0 0 0 0 0 0 0 0 0 0 0 0 0 0 0 0 0 0 0 0 0 0 0
0 0 0 0 0 0 0 0 0 0 0 0 0 0 0 0 0 0 0 0 0 0 0 0 0 0 0 0 0 0 0 0 0 0 0 0 0 0 0 0 0 0 0 0 0 0 0 0 0
0 0 0 0 0 0 0 0 0 0 0 0 0 0 0 0 0 0 0 0 0 0 0 0 0 0 0 0 0 0 0 0 0 0 0 0 0 0 0 0 0 0 0 0 0 0 0 0 0
0 0 0 0 0 0 0 0 0 0 0 0 0 0 0 0 0 0 0 0 0 0 0 0 0 0 0 0 0 0 0 0 0 0 0 0 0 0 0 0 0 0 0 0 0 0 0 0 0
0 0 0 0 0 0 0 0 0 0 0 0 0 0 0 0 0 0 0 0 0 0 0 0 0 0 0 0 0 0 0 0 0 0 0 0 0 0 0 0 0 0 0 0 0 0 0 0 0
0 0 0 0 0 0 0 0 0 0 0 0 0 0 0 0 0 0 0 0 0 0 0 0 0 0 0 0 0 0 0 0 0 0 0 0 0 0 0 0 0 0 0 0 0 0 0 0 0
0 0 0 0 0 0 0 0 0 0 0 0 0 0 1 3 4 2 1 0 0 0 0 0 0 0 0 0 0 0 0 0 0 0 0 0 0 0 0 0 0 0 0 0 0 0 0 0 0
0 0 0 0 0 0 0 0 0 0 0 0 0 0 7 17 21 16 9 3 1 0 0 0 0 0 0 0 0 0 0 0 0 0 0 0 0 0 0 0 0 0 0 0 0 0 0 0 0
0 0 0 0 0 0 0 0 0 0 0 0 0 1 16 41 50 40 22 8 2 1 0 0 0 0 0 0 0 0 0 0 0 0 0 0 0 0 0 0 1 0 0 0 0 0 0 0 0
0 0 0 0 0 0 0 0 0 0 0 0 0 7 31 60 70 57 32 11 3 1 0 0 0 0 0 0 0 0 0 1 0 0 0 0 0 0 0 0 0 0 0 0 0 0 0 0 0
0 0 0 0 0 0 0 0 0 0 0 0 1 15 46 68 68 53 29 10 3 1 0 0 0 0 0 0 0 0 0 0 0 0 0 0 0 0 0 0 0 0 0 0 0 0 0 0 0
0 0 0 0 0 0 0 0 0 0 0 0 1 16 42 56 50 35 19 8 3 1 0 0 0 0 0 0 0 0 0 0 0 0 0 0 0 1 1 0 0 0 0 0 0 0 0 0 0
0 0 0 0 0 0 0 0 0 0 0 0 1 9 22 28 27 21 14 8 4 1 0 0 0 0 0 0 0 0 0 0 0 1 1 1 1 2 2 1 1 0 0 0 0 0 0 0 0
0 0 0 0 0 0 0 0 1 1 1 1 0 2 6 10 13 13 12 9 3 0 1 1 0 0 1 2 1 0 0 0 1 2 3 3 3 3 3 3 2 1 1 1 1 0 0 0 0
0 0 0 0 0 0 0 1 2 3 3 3 2 2 4 8 11 10 8 6 3 3 5 5 3 2 4 5 4 3 3 3 4 6 9 9 7 6 6 6 5 3 3 3 2 1 1 2 2
0 0 0 0 0 0 0 1 4 7 8 8 7 6 8 13 17 15 8 5 6 9 14 18 16 13 11 10 10 10 10 10 13 20 25 26 22 18 17 14 10 8 7 6 4 3 4 4 3
0 0 0 0 0 0 0 2 7 11 13 16 18 17 17 22 27 23 14 11 13 19 28 38 42 41 37 33 32 30 26 26 32 39 44 44 42 37 32 25 18 15 14 10 6 5 5 5 4
0 0 0 0 0 0 0 2 7 13 19 26 32 35 33 35 37 32 25 22 24 31 42 55 63 66 69 68 64 58 52 49 51 55 55 54 51 47 41 35 28 25 22 15 8 7 7 5 5
0 0 0 0 0 0 0 1 4 9 17 26 37 44 46 46 46 45 40 37 38 45 54 63 68 72 78 83 81 76 71 66 64 65 63 58 52 46 42 39 35 31 27 20 13 9 8 6 6
0 0 0 0 0 0 0 0 1 4 8 14 23 32 37 41 45 49 51 51 52 54 59 63 67 68 70 72 74 73 71 68 66 69 70 62 53 47 44 39 36 33 29 23 17 12 9 9 9
0 0 0 0 0 0 0 0 1 1 1 3 7 12 18 24 30 37 43 49 53 53 52 57 62 63 62 62 64 65 64 63 65 70 71 65 54 49 44 36 33 31 28 24 20 16 14 13 14
0 0 0 0 0 0 0 0 0 0 0 0 1 2 5 9 14 19 26 33 38 39 38 43 53 57 57 58 61 63 63 64 67 70 71 67 57 48 38 31 30 29 27 26 24 20 17 15 13
0 0 0 0 0 0 0 0 0 0 0 0 0 0 2 4 6 8 11 15 17 19 24 31 42 49 50 51 55 59 64 67 69 72 72 66 56 42 30 25 27 28 26 25 22 19 16 13 10
0 0 0 0 0 0 0 0 0 0 0 0 0 0 0 1 2 2 3 3 3 5 10 19 28 36 39 39 42 48 56 61 63 68 67 60 49 37 25 21 23 24 21 18 17 16 14 10 7
0 0 0 0 0 0 0 0 0 0 0 0 0 0 0 0 0 0 0 0 0 1 2 7 14 21 24 25 28 35 43 47 51 55 55 50 43 32 23 19 19 19 15 12 12 13 10 6 3
0 0 0 0 0 0 0 0 0 0 0 0 0 0 0 0 0 0 0 0 0 0 0 1 5 9 12 13 17 24 28 31 35 37 36 36 32 23 16 15 15 14 11 8 7 6 4 2 0
0 0 0 0 0 0 0 0 0 0 0 0 0 0 0 0 0 0 0 0 0 0 0 0 2 4 5 6 9 14 17 19 20 21 19 18 17 13 9 8 9 8 6 4 3 2 1 0 0
0 0 0 0 0 0 0 0 0 0 0 0 0 0 0 0 0 0 0 0 0 0 0 0 1 2 3 4 5 6 8 10 9 9 8 6 6 5 4 3 3 2 1 1 1 1 0 0 0
0 0 0 0 0 0 0 0 0 0 0 0 0 0 0 0 0 0 0 0 0 0 0 0 0 1 3 3 3 3 4 4 4 3 3 2 1 2 1 1 0 0 0 0 0 0 0 0 0

GEFSSGP_con_prob3kmehi_042.txt.gz
EHI
0 0 0 1 2 3 1 0 0 0 0 0 0 0 0 0 0 0 0 5 9 5 2 7 7 2 0 0 0 0 0 0 0 0 0 0 0 0 0 0 0 0 0 0 0 0 0 0 0
0 0 0 0 1 1 0 0 0 0 0 0 0 0 0 0 0 0 0 3 6 3 2 5 6 3 0 0 0 0 0 0 0 0 0 0 0 0 0 0 0 0 0 0 0 0 0 0 0
0 0 0 0 0 0 0 0 0 0 0 0 0 0 0 0 0 0 0 1 2 1 1 5 7 4 1 0 0 0 0 0 0 0 0 0 0 0 0 0 0 0 0 0 0 0 0 0 0
0 0 0 0 0 0 0 0 0 0 0 0 0 0 0 0 0 0 0 0 0 0 1 5 8 6 2 0 0 0 0 0 0 0 0 0 0 0 0 0 0 0 0 0 0 0 0 0 0
0 0 0 0 0 0 0 0 0 0 0 0 0 0 0 0 0 0 0 0 1 3 4 6 9 8 4 1 0 0 0 0 0 0 0 0 0 0 0 0 0 0 0 0 0 0 0 0 0
0 0 0 0 0 0 0 0 0 0 0 0 0 0 0 0 0 0 0 0 5 13 13 9 10 11 6 2 0 0 0 0 0 0 0 0 0 0 0 0 0 0 0 0 0 0 0 0 0
0 0 0 0 0 0 0 0 0 0 0 0 0 0 0 0 0 0 0 1 10 24 24 12 8 9 6 2 1 1 0 0 0 0 0 0 0 0 0 0 0 0 1 1 1 0 0 0 0
0 0 0 0 0 0 0 0 0 0 0 0 0 0 0 0 0 0 0 1 12 32 33 15 4 4 3 2 2 2 1 1 1 0 0 0 0 0 1 1 2 2 3 3 2 1 1 1 2
0 0 0 0 0 0 0 0 0 0 0 0 0 0 1 1 1 1 1 2 14 36 43 28 11 4 1 1 1 2 2 2 2 1 1 1 0 0 3 12 22 25 20 14 9 5 4 3 4
0 0 0 0 0 0 0 0 0 0 0 0 1 2 2 1 2 3 3 9 25 45 53 48 34 18 5 3 5 3 2 4 4 5 9 8 3 1 7 30 55 60 45 27 14 9 6 4 4
0 0 0 0 0 0 0 0 0 0 0 0 2 5 3 2 3 7 10 24 48 60 60 64 64 46 20 13 16 9 6 10 9 12 22 20 9 2 11 40 68 72 55 30 17 14 10 5 4
0 0 0 0 0 0 0 0 0 0 0 0 2 6 5 3 5 12 19 36 63 74 70 77 86 74 47 36 36 23 14 19 24 30 37 33 20 11 16 42 65 65 52 41 32 28 20 12 8
0 0 0 0 0 0 0 0 0 0 0 0 1 4 5 5 8 18 30 47 70 82 81 88 96 91 76 69 65 48 34 36 47 57 61 52 42 34 37 56 73 65 53 55 56 47 38 29 19
0 0 0 0 0 0 0 0 0 0 0 0 0 1 3 6 11 25 45 62 75 82 85 92 98 97 94 90 84 70 55 54 62 73 80 76 68 65 70 80 86 75 59 60 66 61 56 44 32
0 0 0 0 0 0 0 0 0 0 0 0 0 2 5 10 14 29 57 75 78 80 86 93 96 97 98 96 89 74 59 55 65 78 86 88 87 87 92 93 91 83 72 67 70 69 61 48 37
0 0 0 0 0 0 0 0 0 0 0 0 2 6 13 20 22 32 57 76 81 85 93 95 94 96 99 98 90 75 59 56 69 83 90 94 95 96 97 95 89 84 79 74 73 72 64 52 45
0 0 0 0 0 0 0 0 0 0 0 2 6 13 23 34 38 41 53 70 83 93 98 98 96 97 99 100 95 84 74 73 80 88 94 96 97 98 99 96 91 85 79 75 73 72 68 61 56
0 0 0 0 0 0 0 0 0 0 0 2 9 20 34 50 58 58 60 69 85 96 100 100 99 99 100 100 98 94 89 89 90 92 95 96 97 99 99 97 92 88 83 78 74 70 66 62 60
0 0 0 0 0 0 0 0 0 0 0 2 11 26 45 61 69 69 70 78 89 96 99 99 100 100 100 100 100 98 97 96 96 96 95 95 96 97 98 96 93 91 87 81 73 67 60 54 51
0 0 0 0 0 0 0 0 0 0 1 3 13 31 48 57 62 64 68 79 88 92 94 96 98 100 100 99 99 100 100 100 99 98 96 95 95 94 94 94 93 92 88 80 70 63 54 44 41
0 0 0 0 0 0 0 0 0 2 6 10 18 31 41 45 47 48 52 61 71 77 82 88 94 98 98 98 98 99 99 99 99 98 96 96 94 91 90 90 90 90 87 78 67 57 48 40 38
0 0 0 0 0 0 0 0 0 3 10 16 22 28 32 33 33 33 33 36 43 50 58 70 83 93 96 97 97 97 96 96 96 95 95 96 94 89 86 85 85 86 84 75 65 56 49 41 36
0 0 0 0 0 0 0 0 0 3 10 17 23 26 25 22 21 21 19 19 21 24 31 42 60 78 87 90 91 92 92 91 90 91 92 93 92 88 85 83 84 84 80 72 64 59 53 41 33
0 0 0 0 0 0 0 0 0 3 8 13 18 19 16 12 10 9 9 9 9 10 12 19 34 52 65 72 77 81 82 82 82 84 87 87 86 85 84 83 83 81 74 67 64 60 51 38 29
0 0 0 0 0 0 0 0 0 3 6 8 8 9 7 5 3 2 3 4 4 3 4 8 17 31 42 52 60 66 69 69 69 72 76 77 77 78 79 79 79 75 67 61 59 55 45 33 27
0 0 0 0 0 0 0 0 0 1 3 3 2 2 2 2 1 0 1 1 1 1 1 4 12 22 30 36 42 48 51 51 52 57 60 61 62 65 68 69 70 67 59 50 48 46 39 31 27
0 0 0 0 0 0 0 0 0 0 1 1 0 0 1 1 0 0 0 1 1 1 1 4 11 19 24 24 24 27 30 33 37 41 43 44 45 49 52 52 52 49 41 34 33 33 30 27 25
0 0 0 0 0 0 0 0 0 0 0 0 0 0 0 0 0 0 0 1 2 1 2 5 9 14 16 15 13 13 14 18 22 25 26 27 29 31 33 32 30 24 18 16 18 19 18 18 20
0 0 0 0 0 0 0 0 0 0 0 0 0 0 0 0 0 0 0 1 2 1 3 7 9 9 10 11 11 9 7 7 9 11 11 12 13 15 16 16 14 9 6 6 7 8 8 10 11
0 0 0 0 0 0 0 0 0 0 0 0 0 0 0 0 0 0 0 1 2 1 4 9 9 7 9 12 12 8 4 2 4 4 4 4 5 7 8 9 9 7 5 4 3 2 3 4 5

GEFSSGP_con_prob3kmehi_048.txt.gz
EHI
0 0 0 0 0 0 0 0 0 0 0 0 0 0 0 0 0 0 0 1 6 12 25 48 55 37 14 4 1 0 0 0 0 0 0 0 0 0 0 0 0 0 0 0 0 0 0 0 0
0 0 0 0 0 0 0 0 0 0 0 0 0 0 0 0 0 0 0 3 9 13 23 45 60 46 22 8 3 1 0 0 0 0 0 0 0 0 0 0 0 0 0 0 0 0 0 0 0
0 0 0 0 0 0 0 0 0 0 0 0 0 0 0 0 0 0 0 4 9 11 21 47 68 60 35 16 6 1 0 0 0 0 0 0 0 0 0 0 0 0 0 0 0 0 0 0 0
0 0 0 0 0 0 0 0 0 0 0 0 0 0 0 0 0 0 0 2 6 8 21 50 74 70 48 26 11 3 0 0 0 0 0 0 0 0 0 0 0 0 0 0 0 0 0 0 0
0 0 0 0 0 0 0 0 0 0 0 0 0 0 0 1 1 1 0 1 3 8 20 47 75 78 59 35 17 8 3 1 0 0 0 0 0 0 0 0 0 0 0 0 0 0 0 0 0
0 0 0 0 0 0 0 0 0 0 0 0 0 0 0 1 2 1 0 0 3 8 17 38 65 74 63 43 25 14 7 3 1 0 0 0 0 0 0 0 0 0 0 0 0 0 0 0 0
0 0 0 0 0 0 0 0 0 0 0 0 0 0 0 1 1 0 0 0 2 5 11 24 40 52 53 43 30 20 13 7 3 1 0 0 0 0 0 0 0 0 0 0 0 1 1 0 0
0 0 0 0 0 0 0 0 0 0 0 0 0 0 0 0 1 5 6 5 4 4 8 14 21 28 33 33 29 24 18 11 6 2 0 0 0 0 0 0 0 0 1 1 2 2 2 1 1
0 0 0 0 0 0 0 0 0 0 1 0 0 0 0 0 4 14 21 19 12 6 7 13 17 18 20 22 25 24 20 13 6 2 0 0 0 0 0 0 1 2 2 4 7 7 5 3 2
0 0 0 0 0 0 0 0 0 1 2 1 0 0 0 0 6 18 32 38 28 13 8 14 18 17 16 17 19 20 18 10 4 1 1 1 0 0 0 0 2 3 4 6 10 11 7 3 2
0 0 0 0 0 0 0 0 0 0 1 0 0 0 0 0 3 13 31 46 42 25 13 13 15 15 11 10 11 14 14 8 4 3 2 2 1 0 0 0 1 2 3 5 7 8 6 3 2
0 0 0 0 0 0 0 0 0 0 0 0 0 1 1 1 1 7 21 40 48 39 25 16 13 10 6 4 4 7 8 7 6 4 3 3 2 1 0 0 0 2 5 7 6 4 3 2 1
0 0 0 0 0 0 0 0 0 0 0 1 2 4 4 3 2 4 13 32 49 51 40 28 20 11 5 3 3 4 4 5 5 4 5 6 7 5 2 0 1 5 12 14 10 5 2 1 1
0 0 0 0 0 0 0 0 0 0 1 4 8 10 12 12 11 11 16 32 51 61 57 48 37 25 20 19 19 18 15 12 11 10 12 19 23 20 12 6 7 15 22 22 15 7 4 3 2
0 0 0 0 0 0 0 0 0 2 4 10 17 23 27 29 27 26 30 40 53 65 70 68 59 51 49 51 52 49 44 36 30 27 30 39 47 45 36 26 25 31 34 30 21 12 9 9 8
0 0 0 0 0 0 0 0 1 4 9 18 29 39 45 48 45 43 47 53 58 66 76 80 76 74 75 76 76 75 69 60 50 44 45 53 61 64 61 54 49 50 48 41 29 19 15 15 15
0 0 0 0 0 0 0 0 1 6 14 26 40 52 59 61 59 56 59 63 63 68 76 81 81 82 84 84 82 79 75 67 55 46 46 52 61 69 73 73 70 66 61 53 40 28 22 21 20
0 0 0 0 0 0 0 0 0 5 16 31 46 58 65 69 68 65 64 65 64 67 72 75 76 78 82 83 79 76 72 63 52 43 38 42 54 65 73 78 78 73 67 59 48 36 27 22 19
0 0 0 0 0 0 0 0 0 3 13 31 50 62 67 69 68 64 59 57 58 59 62 66 68 71 74 76 74 72 69 63 55 47 38 35 43 57 67 75 76 72 67 60 49 39 28 18 13
0 0 0 0 0 0 0 0 0 3 12 31 51 62 64 61 58 53 47 45 45 45 47 52 56 58 60 61 61 61 61 60 58 53 44 38 40 49 58 65 68 68 64 58 48 38 29 18 11
0 0 0 0 0 0 0 0 0 3 13 30 47 56 55 49 43 39 37 35 35 35 34 36 40 43 41 40 43 45 48 50 51 49 44 39 40 45 49 54 59 63 62 57 49 39 30 20 11
0 0 0 0 0 0 0 0 0 3 11 22 36 44 41 35 31 28 28 28 30 29 28 28 29 29 26 24 26 29 32 35 34 33 31 31 33 37 40 44 48 52 53 52 45 36 29 20 12
0 0 0 0 0 0 0 0 0 1 5 13 25 30 27 22 20 18 17 19 22 24 25 24 23 23 19 15 14 14 15 16 15 15 16 17 19 22 25 30 35 38 40 40 35 30 26 20 14
0 0 0 0 0 0 0 0 0 0 4 10 16 19 16 13 12 11 11 13 16 20 22 23 22 20 15 9 5 4 4 3 3 5 5 6 6 8 11 15 20 24 27 27 24 21 20 18 14
0 0 0 0 0 0 0 0 0 0 3 8 10 10 10 9 9 9 10 11 14 17 20 24 23 18 12 6 3 1 1 0 0 1 1 0 0 1 4 7 9 12 16 17 15 13 12 11 10
0 0 0 0 0 0 0 0 0 0 2 5 6 6 7 8 8 9 9 10 12 13 17 21 21 16 10 6 4 2 0 0 0 0 0 0 0 0 1 3 5 7 9 10 9 7 6 5 4
0 0 0 0 0 0 0 0 0 0 0 2 3 4 6 7 7 7 8 9 10 10 12 16 17 13 8 6 4 2 0 0 0 0 0 0 0 0 0 1 3 5 6 6 5 4 2 1 0
0 0 0 0 0 0 0 0 0 0 0 0 1 2 3 5 5 6 7 8 8 8 9 11 12 8 5 5 5 3 1 0 0 0 0 0 0 0 0 0 1 2 3 3 2 2 1 0 0
0 0 0 0 0 0 0 0 0 0 0 0 0 0 1 1 2 4 4 4 5 6 6 7 7 5 3 4 5 3 1 0 0 0 0 0 0 0 0 0 0 0 1 1 1 0 0 0 0
0 0 0 0 0 0 0 0 0 0 0 0 0 0 0 0 1 1 1 2 3 4 5 5 4 2 2 4 4 3 1 0 0 0 0 0 0 0 0 0 0 0 0 1 0 0 0 0 0

GEFSSGP_con_prob3kmehi_054.txt.gz
EHI
0 0 0 0 0 0 0 0 0 0 0 0 0 0 0 0 0 0 0 0 0 0 1 8 17 17 10 6 2 1 3 4 2 0 0 0 0 0 0 0 0 0 0 0 0 0 0 0 0
0 0 0 0 0 0 0 0 0 0 0 0 0 0 0 0 0 0 0 0 0 0 0 8 20 23 17 12 7 4 4 3 2 1 1 1 0 0 0 0 0 0 0 0 0 0 0 0 0
0 0 0 0 0 0 0 0 0 0 0 0 0 0 0 0 0 0 0 0 0 0 0 11 28 33 28 22 17 11 6 3 2 2 2 2 1 0 0 0 0 0 0 0 0 0 0 0 0
0 0 0 0 0 0 0 0 0 0 0 0 0 0 0 0 0 0 0 0 0 0 0 13 33 40 35 31 25 18 10 4 3 3 3 2 1 0 0 0 0 0 0 0 0 0 0 0 0
0 0 0 0 0 0 0 0 0 0 0 0 0 0 0 0 0 0 0 1 2 1 0 13 34 42 38 35 30 22 13 7 4 3 2 1 0 0 0 0 0 0 0 0 0 0 0 0 0
0 0 0 0 0 0 0 0 0 0 0 0 0 0 0 0 0 0 0 1 2 2 1 10 27 36 36 34 30 23 15 8 5 3 1 0 0 0 0 0 0 0 0 0 0 0 0 0 0
0 0 0 0 0 0 0 0 0 0 0 0 0 0 0 0 0 0 0 1 1 2 3 6 14 23 27 29 28 23 15 9 5 2 1 0 0 0 0 0 0 0 0 0 0 0 0 0 0
0 0 0 0 0 0 0 0 0 0 0 0 0 0 0 0 0 0 0 0 1 3 6 7 11 15 18 22 24 24 19 12 6 3 1 1 0 0 0 0 0 0 0 0 0 0 0 0 0
0 0 0 0 0 0 0 0 0 0 0 0 0 0 0 0 0 0 0 0 1 5 9 12 15 17 16 17 19 22 21 15 9 5 3 2 1 0 0 0 0 0 0 0 0 0 0 0 0
0 0 0 0 0 0 0 0 0 0 0 0 0 1 1 1 0 0 0 0 0 3 7 11 14 17 17 14 13 15 17 15 11 8 5 4 2 1 0 0 0 0 0 0 0 0 0 0 0
0 0 0 0 0 0 0 0 0 0 0 0 0 3 5 2 0 0 0 0 0 1 2 5 9 12 14 12 8 9 13 13 12 9 6 5 4 2 0 0 0 0 0 0 0 0 0 0 1
0 0 0 0 0 0 0 0 0 0 0 0 1 5 7 4 1 0 0 0 0 0 0 1 4 9 12 9 5 6 10 13 12 9 6 6 6 4 1 1 0 0 0 0 0 0 0 0 1
0 0 0 0 0 0 0 0 0 0 1 3 6 8 7 4 1 0 0 0 1 1 1 1 3 7 11 9 5 3 6 9 10 7 5 6 7 5 3 2 1 0 0 1 1 1 0 0 1
0 0 0 0 0 0 0 0 0 2 6 12 14 12 9 6 3 1 2 2 3 3 2 2 2 5 9 9 6 3 2 4 5 4 3 5 7 7 5 3 1 1 1 2 2 1 0 0 0
0 0 0 0 0 0 0 1 2 7 14 22 23 20 16 12 9 7 6 7 8 8 6 3 2 4 6 8 7 4 2 1 1 1 1 2 6 8 7 5 4 5 6 6 4 3 3 3 2
0 0 0 0 0 0 1 3 6 13 24 30 31 28 25 21 18 15 14 13 14 15 12 10 10 9 8 10 11 10 8 6 5 4 3 3 5 9 12 11 10 14 17 16 13 13 13 10 7
0 0 0 0 0 1 2 6 12 20 30 36 35 32 30 29 27 24 21 19 18 19 20 20 21 19 17 17 19 21 21 18 17 16 12 10 11 15 18 18 19 24 29 27 25 28 28 21 13
0 0 0 0 0 1 4 9 16 24 32 36 34 32 34 35 31 27 24 21 19 21 24 25 27 28 26 24 25 27 27 28 29 28 23 19 20 22 25 25 27 33 36 32 33 37 35 26 19
0 0 0 0 0 1 4 8 14 20 25 27 28 31 34 35 30 26 23 20 17 18 21 24 27 30 30 29 27 26 27 29 29 27 23 19 18 20 24 27 31 36 37 33 34 38 34 26 20
0 0 0 0 0 0 2 5 8 11 13 15 19 25 29 28 24 20 17 14 12 12 14 19 23 26 28 28 26 23 21 21 18 14 13 13 12 13 15 18 22 27 30 29 32 34 31 24 20
0 0 0 0 0 0 0 1 3 4 4 7 13 18 20 19 15 12 9 7 6 7 8 11 15 18 20 21 19 16 13 11 7 4 4 6 7 7 7 8 9 13 18 21 24 27 27 22 18
0 0 0 0 0 0 0 0 0 1 1 3 8 11 12 10 7 5 3 2 3 5 6 7 9 11 12 13 12 11 9 5 2 0 0 2 3 3 3 2 3 5 9 11 13 17 20 18 16
0 0 0 0 0 0 0 0 0 0 0 1 3 4 4 4 2 2 1 2 4 5 6 6 7 7 8 8 8 8 7 3 1 0 0 0 1 1 1 0 1 2 4 5 5 8 11 13 13
0 0 0 0 0 0 0 0 0 0 0 0 1 1 1 1 0 1 2 4 6 6 6 7 7 7 6 5 4 4 3 1 0 0 0 0 0 0 0 0 0 1 1 2 2 2 4 6 6
0 0 0 0 0 0 0 0 0 0 0 0 0 0 0 0 0 1 3 5 6 6 7 8 9 8 5 3 1 1 1 1 0 0 0 0 0 0 0 0 0 0 0 0 0 1 1 1 1
0 0 0 0 0 0 0 0 0 0 0 0 0 0 0 0 0 2 3 4 4 6 8 12 12 8 4 2 1 0 0 0 0 0 0 0 0 0 0 0 0 0 0 0 0 0 0 0 0
0 0 0 0 0 0 0 0 0 0 0 0 0 1 1 1 1 1 2 2 3 4 8 12 12 8 4 2 0 0 0 0 0 0 0 0 0 0 0 0 0 0 0 0 0 0 0 0 0
0 0 0 0 0 0 0 0 0 0 0 0 0 1 2 2 1 1 1 1 1 2 4 6 7 7 5 2 0 0 0 0 0 0 0 0 0 0 0 0 0 0 0 0 0 0 0 0 0
0 0 0 0 0 0 0 0 0 0 0 0 0 0 1 1 1 0 0 0 0 1 1 1 3 4 3 1 0 1 1 1 0 0 0 0 0 0 0 0 0 0 0 0 0 0 0 0 0
0 0 0 0 0 0 0 0 0 0 0 0 0 0 0 0 0 0 0 0 0 0 0 0 1 1 1 0 0 1 2 2 1 0 0 0 0 0 0 0 0 0 0 0 0 0 0 0 0

GEFSSGP_con_prob3kmehi_060.txt.gz
EHI
0 0 0 1 1 1 0 0 0 0 0 0 0 0 0 0 0 0 0 0 0 3 7 6 3 4 6 10 11 12 15 16 12 5 1 0 0 0 0 0 0 0 0 0 0 0 0 0 0
0 0 0 0 0 0 0 0 0 0 0 0 0 0 0 0 0 0 0 0 0 3 5 5 4 4 5 8 9 13 16 16 12 5 1 0 0 0 0 0 0 0 0 0 0 0 0 0 0
0 0 0 0 0 0 0 0 0 0 0 0 0 0 0 0 0 0 0 0 0 1 3 4 5 5 5 6 7 12 16 16 11 6 2 1 1 0 0 0 0 0 0 0 0 0 0 0 0
0 0 0 0 0 0 0 0 0 0 0 0 0 0 0 0 0 0 0 0 0 1 2 6 7 6 5 6 8 11 16 16 12 8 5 3 2 1 0 0 0 0 0 0 0 0 0 0 0
0 0 0 0 0 0 0 0 0 0 0 0 0 0 0 0 0 0 0 0 0 1 3 8 11 8 6 8 10 13 17 19 17 14 11 7 4 3 1 0 0 0 0 0 0 0 0 0 0
0 0 0 0 0 0 0 0 0 0 0 0 0 0 0 0 0 0 0 0 0 0 3 7 9 8 8 9 10 13 17 20 20 18 14 10 7 5 2 0 0 0 0 0 0 0 0 0 0
0 0 0 0 0 0 0 0 0 0 0 0 0 0 0 1 0 0 0 0 0 0 1 3 4 5 6 7 9 12 14 16 16 15 13 10 8 6 4 1 0 0 0 0 0 0 0 0 0
0 0 0 0 0 0 0 0 0 0 0 0 0 0 1 3 3 1 0 0 0 0 0 0 0 1 2 3 7 10 11 10 9 9 8 6 5 5 5 3 2 1 0 0 0 0 0 0 0
0 0 0 0 0 0 0 0 0 0 0 0 0 1 4 8 8 5 2 1 1 1 0 0 0 0 0 1 4 8 8 6 5 4 3 2 2 3 4 5 6 5 1 1 0 0 0 0 0
0 0 0 0 0 0 0 0 0 0 0 0 1 4 9 13 12 9 4 2 3 3 1 0 0 0 0 1 2 3 4 5 5 4 4 4 3 3 3 6 10 8 3 1 0 0 0 0 0
0 0 0 0 0 0 0 0 0 0 0 0 3 11 18 17 13 10 6 3 2 2 1 0 1 1 2 3 4 4 5 7 7 6 6 6 5 4 3 5 8 9 5 3 2 1 1 0 0
0 0 0 0 0 0 0 0 0 0 0 1 6 18 25 21 13 10 7 3 1 1 0 1 4 6 7 8 8 7 8 9 7 6 6 6 5 4 4 6 7 7 6 4 4 4 3 2 2
0 0 0 0 0 0 0 0 0 0 0 3 11 20 25 22 15 11 7 4 2 1 0 3 8 12 15 17 14 10 8 7 4 3 5 5 4 2 3 7 9 7 6 7 6 5 7 7 8
0 0 0 0 0 0 0 0 1 2 3 9 16 20 23 23 19 14 9 6 3 1 2 6 11 17 23 24 19 12 8 7 4 3 5 5 4 4 5 8 9 9 10 14 11 8 10 13 14
0 0 0 0 0 0 0 1 3 6 9 16 23 28 32 34 28 19 13 9 5 4 7 10 12 17 24 27 22 13 9 8 8 8 8 8 6 7 9 10 12 15 18 21 19 14 15 19 20
0 0 0 0 0 0 0 2 8 12 15 22 29 35 42 44 35 23 16 11 8 10 14 13 10 13 21 25 21 14 9 11 13 14 13 11 8 9 13 16 19 25 29 30 28 27 30 32 30
0 0 0 0 0 0 0 5 14 20 24 29 33 36 40 41 35 28 21 15 15 17 17 14 11 13 19 22 20 16 13 15 16 15 15 14 10 11 16 19 23 29 34 36 37 44 50 48 44
0 0 0 0 0 0 1 6 16 25 30 35 38 39 37 35 33 31 29 25 23 22 19 15 15 19 23 23 23 20 18 16 13 11 11 12 11 11 13 16 17 23 29 32 39 49 57 58 56
0 0 0 0 1 1 1 4 11 20 29 37 42 42 38 34 33 35 35 33 29 24 22 20 21 24 26 25 25 23 19 13 10 8 7 8 8 8 8 9 12 18 23 25 31 43 52 57 59
0 0 0 0 1 1 1 2 5 12 24 35 40 39 36 34 36 39 41 39 33 29 25 23 21 21 21 22 22 21 17 12 10 9 7 5 4 4 4 7 11 17 20 21 25 35 44 50 54
0 0 0 0 0 0 0 1 2 7 17 28 35 37 35 35 37 40 41 40 37 33 27 20 17 16 16 17 18 18 17 13 11 10 7 5 3 3 3 5 9 14 16 17 20 27 35 42 46
0 0 0 0 0 0 0 0 1 4 9 19 31 35 36 35 33 33 34 34 34 31 24 18 16 15 15 16 18 19 16 12 9 8 8 7 5 4 4 5 7 9 11 11 13 17 24 30 33
0 0 0 0 0 0 0 0 1 2 4 11 21 28 30 29 26 24 25 26 26 24 21 18 18 18 18 20 23 23 19 13 10 10 10 8 5 3 3 3 4 5 6 5 6 9 13 17 19
0 0 0 0 0 0 0 0 0 1 2 5 12 17 20 21 19 18 17 17 17 16 16 18 21 26 30 33 34 33 30 25 21 16 11 6 3 2 1 1 1 2 2 2 2 3 5 7 9
0 0 0 0 0 0 0 0 0 0 1 4 7 10 11 11 11 11 10 9 8 8 10 15 23 34 43 45 46 46 43 38 32 24 14 6 2 1 1 1 0 0 0 0 0 1 1 2 2
0 0 0 0 0 0 0 0 0 0 1 2 4 4 4 4 4 4 5 4 3 4 7 13 22 34 43 45 47 49 48 44 40 34 23 13 6 3 2 2 1 0 0 0 0 0 0 0 0
0 0 0 0 0 0 0 0 0 0 0 1 1 1 1 1 1 2 2 2 3 5 7 11 19 29 35 36 38 40 42 44 45 44 36 26 19 12 8 6 3 1 0 0 0 0 0 0 0
0 0 0 0 0 0 0 0 1 0 0 0 0 0 0 0 0 1 2 3 4 6 7 10 15 22 25 27 27 28 32 39 45 47 42 36 30 23 16 12 6 2 0 0 0 0 0 0 0
0 0 0 0 0 0 0 0 0 0 0 0 0 0 0 0 0 1 1 2 4 5 6 8 10 13 15 16 17 19 23 30 38 41 39 34 31 27 21 15 9 4 1 0 0 0 0 0 0
0 0 0 0 0 0 0 0 0 0 0 0 0 0 0 0 0 0 0 1 2 4 5 6 6 7 8 9 11 13 17 24 30 33 34 31 28 25 22 16 10 5 2 1 0 0 0 0 0

GEFSSGP_con_prob3kmehi_066.txt.gz
EHI
0 1 3 10 18 15 4 0 0 0 0 0 0 0 1 2 3 3 5 24 43 32 15 19 20 10 3 3 3 3 3 3 3 3 3 3 2 3 3 3 3 3 3 3 1 0 0 0 1
0 0 1 6 10 7 2 0 0 0 0 0 0 0 1 1 1 1 5 25 39 26 10 13 15 9 3 3 3 3 3 3 3 3 3 3 3 3 3 3 3 3 3 3 2 1 1 1 2
0 0 0 2 2 1 0 0 0 0 0 0 0 0 0 0 0 0 4 19 28 18 7 10 13 8 4 3 3 3 3 3 3 3 3 3 3 3 3 3 2 1 1 2 3 2 2 2 2
0 0 0 0 0 0 0 0 0 0 0 0 0 0 0 0 0 0 3 11 18 16 11 13 13 9 4 3 3 3 3 3 3 3 3 3 3 3 3 3 1 0 1 1 2 2 2 3 3
0 0 0 0 0 0 0 0 0 0 0 0 1 2 1 0 0 0 1 6 15 21 20 15 14 11 5 3 3 3 3 3 3 3 3 3 3 3 3 3 2 1 1 1 1 1 2 3 3
0 0 0 0 0 0 0 0 0 0 0 0 1 2 1 0 0 0 1 3 15 31 30 17 13 11 5 3 3 3 3 3 3 3 3 3 3 3 3 3 3 3 3 3 3 3 3 3 4
0 0 0 0 0 0 0 0 0 0 0 0 0 1 1 0 0 0 0 2 17 39 38 18 10 8 5 3 3 3 4 4 3 3 3 3 4 4 4 5 6 6 6 6 6 6 5 5 6
0 0 0 0 0 0 0 0 0 0 0 0 0 0 1 1 1 1 1 2 18 41 38 18 9 7 4 5 6 7 8 8 6 6 5 4 5 7 12 16 19 16 12 10 9 9 8 8 8
0 0 0 0 0 0 0 0 0 0 0 1 2 3 2 2 2 2 2 3 17 35 35 23 19 13 6 10 16 17 16 16 15 13 14 12 8 8 18 30 39 41 35 27 21 16 14 11 9
0 0 0 0 0 0 0 0 0 0 1 4 8 8 4 3 4 5 5 8 19 31 31 31 33 21 9 19 30 26 23 31 31 26 28 28 19 11 17 37 58 65 59 46 33 25 19 13 9
0 0 0 0 0 0 0 0 0 1 3 7 12 13 9 8 10 11 12 18 28 31 28 34 42 31 15 24 36 30 31 45 50 43 42 44 38 25 22 41 65 73 66 51 38 31 25 16 11
0 0 0 0 0 0 0 0 0 1 4 7 11 15 16 18 20 20 20 29 39 35 28 38 52 46 29 29 36 35 35 47 59 63 61 61 60 49 41 51 66 71 65 56 46 41 37 28 22
0 0 0 0 0 0 0 0 0 1 4 5 8 14 18 22 28 30 30 41 50 42 35 50 68 67 53 45 44 41 40 45 59 71 75 75 77 71 64 66 71 67 63 63 60 55 52 46 39
0 0 0 0 0 0 0 0 0 1 3 3 6 11 16 22 32 41 48 58 61 53 51 67 82 85 77 66 56 49 47 51 58 68 74 78 81 82 80 79 74 65 60 62 65 60 56 53 48
0 0 0 0 0 0 0 0 0 1 1 2 5 10 18 27 35 48 65 74 71 67 74 82 87 91 90 81 68 56 51 54 60 65 70 76 80 81 81 78 72 65 62 64 64 57 51 48 45
0 0 0 0 0 0 0 0 0 1 2 4 7 14 27 38 42 51 70 80 80 82 90 90 86 91 94 88 76 61 52 53 60 65 69 74 73 71 71 71 67 65 64 65 60 53 49 46 42
0 0 0 0 0 0 0 0 0 1 3 6 10 20 35 48 51 55 67 78 85 91 95 93 89 90 90 86 76 61 50 50 55 62 67 66 58 53 54 57 57 57 58 58 53 50 52 49 45
0 0 0 0 0 0 0 0 0 0 3 6 12 23 38 51 59 61 65 75 85 93 95 94 92 87 82 78 70 59 51 49 49 56 62 55 45 40 38 39 40 41 44 46 46 45 47 46 44
0 0 0 0 0 0 0 0 0 2 5 11 18 29 42 55 63 65 67 73 82 90 94 93 88 80 75 72 67 59 53 47 44 49 53 46 36 30 27 26 26 27 29 33 34 35 35 35 36
0 0 0 0 0 0 0 0 2 5 10 17 25 34 45 56 63 67 68 70 76 84 87 86 81 74 69 66 62 58 53 46 41 45 48 42 32 23 20 20 20 20 21 21 23 24 23 23 26
0 0 0 0 0 0 0 1 5 11 16 20 27 35 45 53 61 65 66 68 72 76 78 76 74 71 67 62 57 55 55 50 46 51 53 46 34 23 19 18 17 15 15 14 15 17 16 16 18
0 0 0 0 0 0 0 1 7 16 21 24 28 35 43 48 53 56 59 63 65 66 71 74 74 73 71 66 62 62 62 57 57 62 63 56 44 31 22 18 17 15 12 10 10 11 12 11 11
0 0 0 0 0 0 0 1 7 17 24 26 27 33 38 40 42 45 48 51 52 53 62 72 76 76 75 72 71 73 71 67 67 69 68 65 56 42 27 19 19 18 13 8 7 7 7 7 6
0 0 0 0 0 0 0 1 6 16 25 25 25 29 32 31 33 35 37 39 40 43 51 62 71 75 74 72 73 76 77 76 74 71 68 67 62 51 37 28 27 25 17 11 8 5 4 4 4
0 0 0 0 0 0 0 2 8 18 23 24 24 25 26 25 26 28 30 32 33 35 39 48 59 66 67 67 69 72 75 75 74 70 66 64 59 53 46 42 40 34 24 17 12 7 3 3 3
0 0 0 0 0 0 0 4 12 17 17 17 16 16 15 17 19 20 21 23 25 26 28 34 42 48 51 54 59 64 66 65 65 65 63 60 56 51 49 49 46 40 31 23 16 10 5 3 3
0 0 0 0 0 0 1 5 11 12 9 7 6 6 8 9 11 11 11 12 14 15 17 20 24 28 31 33 37 44 48 48 50 54 56 55 54 51 48 45 45 42 35 27 20 13 8 4 3
0 0 0 0 0 0 0 4 9 10 7 4 3 4 5 5 5 4 3 4 5 7 8 9 12 14 15 16 18 21 25 28 31 35 40 44 47 48 44 39 38 39 35 29 22 15 9 5 4
0 0 0 0 0 0 0 4 12 15 9 4 3 3 3 3 2 1 0 0 1 2 3 3 4 5 6 6 7 8 10 13 16 19 23 28 33 37 36 32 30 30 28 24 21 15 9 5 3
0 0 0 0 0 0 0 5 15 16 8 3 2 2 2 1 1 0 0 0 0 1 1 1 1 1 1 1 2 4 6 7 9 11 13 17 23 28 29 26 24 23 19 18 19 15 8 3 3

GEFSSGP_con_prob3kmehi_072.txt.gz
EHI
0 0 0 0 0 1 2 1 0 0 0 0 0 0 0 1 1 0 0 2 12 27 40 54 63 58 39 17 4 1 0 0 0 0 0 0 0 0 0 0 0 0 0 0 0 0 0 0 0
0 0 0 0 0 0 1 0 0 0 0 0 0 0 0 1 1 0 0 4 14 30 44 56 67 63 44 23 8 2 0 0 0 0 0 0 0 0 0 0 0 0 0 0 0 0 0 0 0
0 0 0 0 0 0 0 0 0 0 0 0 0 0 0 1 2 1 2 7 18 30 41 57 72 69 52 31 15 5 1 0 0 0 0 0 0 0 0 0 0 0 0 0 0 0 0 0 0
0 0 0 0 0 0 0 0 0 0 0 0 0 0 0 3 7 6 4 10 19 25 34 55 72 71 57 37 20 9 3 1 0 0 0 0 0 0 0 0 0 0 0 0 0 0 0 0 0
0 0 0 0 0 0 0 0 0 0 0 0 0 0 1 8 15 12 7 10 18 22 29 48 67 69 57 40 24 13 5 2 1 0 0 0 0 0 0 0 0 0 0 0 0 0 0 0 0
0 0 0 0 0 0 0 0 0 0 0 0 0 0 2 11 19 15 7 8 15 22 27 38 52 58 53 40 25 13 6 3 2 1 0 0 0 0 0 0 0 0 0 0 0 0 0 0 0
0 0 0 0 0 0 0 0 0 0 0 0 0 0 2 9 16 14 9 7 10 18 23 26 32 38 38 31 21 11 6 4 3 2 1 0 0 0 0 0 0 0 0 0 0 0 0 0 0
0 0 0 0 0 0 0 0 0 0 0 0 0 0 1 5 13 19 17 12 10 11 15 17 18 19 19 17 14 9 5 3 3 2 1 0 0 0 0 0 0 1 1 0 0 0 0 0 0
0 0 0 0 0 0 0 0 0 0 1 1 0 0 1 6 18 30 34 29 19 11 10 12 12 10 9 9 8 6 3 2 1 1 1 0 0 0 0 0 0 2 4 4 4 2 1 1 1
0 0 0 0 0 0 0 0 0 1 1 1 2 4 6 10 21 37 50 49 36 21 12 8 8 8 7 6 4 2 1 1 0 0 0 0 0 0 0 0 0 2 6 9 9 6 4 5 6
0 0 0 0 0 0 0 0 0 1 1 2 6 11 13 13 19 34 50 56 48 34 19 9 6 7 7 4 3 2 0 0 0 1 1 1 1 0 0 0 0 2 6 11 12 10 10 11 12
0 0 0 0 0 0 0 0 0 1 1 4 10 18 21 16 15 24 39 50 53 46 31 17 9 8 7 5 5 6 4 3 4 5 6 6 5 3 2 1 1 3 6 11 13 12 12 13 13
0 0 0 0 0 0 0 0 0 1 4 9 17 24 26 20 15 19 32 47 55 53 43 31 22 18 16 15 15 15 13 12 13 13 14 15 14 10 6 4 5 6 9 11 11 11 10 10 10
0 0 0 0 0 0 0 0 0 2 9 18 25 29 28 24 20 22 34 48 56 57 55 49 44 41 38 36 33 30 26 25 24 23 23 25 24 20 13 10 11 12 12 10 8 8 8 7 7
0 0 0 0 0 0 0 0 0 5 16 28 32 30 27 26 25 29 39 49 56 59 62 62 61 61 62 59 52 45 38 34 31 29 30 33 32 27 21 17 16 16 14 12 9 7 7 5 4
0 0 0 0 0 0 0 0 1 9 24 35 35 31 28 26 27 32 39 46 52 58 63 66 67 70 72 69 61 52 44 38 32 29 30 34 34 30 26 22 17 14 13 12 9 6 4 2 1
0 0 0 0 0 0 0 0 3 13 27 34 33 31 30 29 31 34 36 39 44 50 57 62 66 68 68 64 59 51 43 37 30 26 27 31 32 30 27 21 15 12 10 10 7 4 1 0 0
0 0 0 0 0 0 1 3 7 15 25 30 33 34 33 33 35 36 35 34 36 40 46 53 60 61 58 55 53 48 41 33 26 22 23 25 27 27 23 17 11 8 8 7 4 1 0 0 0
0 0 0 0 0 1 4 7 11 16 22 29 36 40 39 36 35 34 33 32 31 31 33 40 45 47 47 45 44 42 35 26 19 17 18 19 20 20 17 11 7 6 6 4 2 0 0 0 0
0 0 0 0 0 1 4 8 12 15 21 30 38 39 37 34 30 27 26 27 27 26 25 27 28 29 31 32 32 31 26 20 16 15 13 12 14 15 12 7 5 5 5 2 0 0 0 0 0
0 0 0 0 0 0 2 5 9 12 18 28 31 30 28 25 20 17 16 18 18 18 18 18 15 14 15 18 20 21 21 18 15 13 10 8 10 11 9 6 4 5 4 1 0 0 0 0 0
0 0 0 0 0 0 0 1 4 8 15 20 21 19 18 16 12 9 9 10 9 7 8 9 9 7 7 9 12 15 17 15 13 12 9 7 7 8 7 6 5 4 2 0 0 0 0 0 0
0 0 0 0 0 0 0 0 1 4 7 9 10 10 10 9 7 5 5 5 4 2 1 3 4 4 5 6 7 9 10 11 11 10 8 5 4 4 4 5 5 2 0 0 0 0 0 0 0
0 0 0 0 0 0 0 0 0 1 2 2 3 6 6 4 3 3 2 1 1 0 0 0 1 3 3 3 4 5 6 8 8 8 6 3 2 1 2 3 3 1 0 0 0 0 0 0 0
0 0 0 0 0 0 0 0 0 0 0 0 1 3 4 3 1 1 0 0 0 0 0 0 1 1 1 1 2 3 4 5 5 4 4 2 1 0 0 1 1 0 0 0 0 0 0 0 0
0 0 0 0 0 0 0 0 0 0 0 0 0 1 1 1 1 0 0 0 0 0 0 0 0 0 0 0 1 1 1 2 1 1 1 1 1 0 0 0 0 0 0 0 0 0 0 0 0
0 0 0 0 0 0 0 0 0 0 0 0 0 0 0 0 0 0 0 0 0 0 0 0 0 0 0 0 0 0 0 0 0 0 0 0 0 0 0 0 0 0 0 0 0 0 0 0 0
0 0 0 0 0 0 0 0 0 0 0 0 0 0 0 0 0 0 0 0 0 0 0 0 0 0 0 0 0 0 0 0 0 0 0 0 0 0 0 0 0 0 0 0 0 0 0 0 0
0 0 0 0 0 0 0 0 0 0 0 0 0 0 0 0 0 0 0 0 0 0 0 0 0 0 0 0 0 0 0 0 0 0 0 0 0 0 0 0 0 0 0 0 0 0 0 0 0
0 0 0 0 0 0 0 0 0 0 0 0 0 0 0 0 0 0 0 0 0 0 0 0 0 0 0 0 0 0 0 0 0 0 0 0 0 0 0 0 0 0 0 0 0 0 0 0 0

GEFSSGP_con_prob3kmehi_078.txt.gz
EHI
0 0 0 0 0 0 0 0 0 0 0 0 0 0 0 1 0 0 0 0 2 6 10 16 20 18 13 8 6 5 5 5 4 2 1 0 0 0 0 0 0 0 0 0 0 0 0 0 0
0 0 0 0 0 0 0 0 0 0 0 0 0 0 1 1 0 0 0 0 4 10 13 17 27 30 24 17 11 7 5 4 3 2 1 0 0 0 0 0 0 0 0 0 0 0 0 0 0
0 0 0 0 0 0 0 0 0 0 0 0 0 1 2 1 0 0 0 1 7 15 16 23 42 50 41 30 21 13 7 5 4 3 1 0 0 0 0 0 0 0 0 0 0 0 0 0 0
0 0 0 0 0 0 0 0 0 0 0 0 0 1 2 1 0 0 1 4 13 21 21 32 56 65 56 43 31 20 12 7 5 4 2 1 0 0 0 0 0 0 0 0 0 0 0 0 0
0 0 0 0 0 0 0 0 0 0 0 0 0 0 1 1 0 1 3 8 22 31 31 41 64 73 65 53 39 27 17 10 6 4 3 2 0 0 0 0 0 0 0 0 0 0 0 0 0
0 0 0 0 0 0 0 0 0 0 0 0 0 0 0 0 1 2 5 12 27 40 43 50 66 73 68 59 46 33 23 14 7 4 3 1 0 0 0 0 0 0 0 0 0 0 0 0 0
0 0 0 0 0 0 0 0 0 0 0 0 0 0 0 1 3 5 7 15 30 45 51 54 60 64 64 57 48 38 27 17 8 4 3 1 0 0 0 0 0 0 0 0 0 0 0 0 0
0 0 0 0 0 0 0 0 0 0 0 0 0 0 3 8 12 13 15 21 33 43 49 52 55 57 55 49 43 36 27 17 9 4 2 1 0 0 0 0 0 0 0 0 0 0 0 0 0
0 0 0 0 0 0 0 0 0 0 0 0 1 4 17 31 34 29 26 27 33 37 39 45 52 55 51 42 35 30 23 16 10 4 1 0 0 0 0 0 0 0 0 0 0 0 0 0 0
0 0 0 0 0 0 0 0 0 0 0 1 4 15 39 60 56 42 33 29 29 29 29 34 44 51 49 40 32 25 19 14 10 6 2 1 0 0 0 0 0 0 0 0 0 0 0 0 1
0 0 0 0 0 0 0 0 0 0 1 2 9 28 58 76 69 49 35 27 23 22 23 27 34 40 41 36 29 24 19 14 11 8 5 3 1 1 1 0 0 0 0 0 0 0 0 1 1
0 0 0 0 0 0 0 0 0 1 3 5 15 38 65 77 70 54 40 31 26 23 24 27 29 31 31 29 25 23 19 14 11 9 7 6 3 1 1 0 0 0 0 0 0 1 1 1 1
0 0 0 0 0 0 0 0 1 3 5 7 19 39 58 66 62 54 47 43 41 36 30 29 30 27 24 22 20 19 17 13 11 9 8 8 6 3 1 0 0 0 0 0 0 1 1 1 0
0 0 0 0 0 0 1 0 1 3 7 10 19 34 46 49 48 47 46 47 49 43 33 28 29 26 23 19 16 14 12 9 8 7 6 7 7 4 1 0 0 0 1 1 1 1 1 1 0
0 0 0 0 0 0 0 0 2 5 10 15 21 30 35 34 34 35 36 38 40 37 30 25 25 25 23 18 14 11 7 4 3 3 4 5 5 4 1 0 0 0 1 2 2 2 2 1 1
0 0 0 0 0 0 0 1 4 10 15 19 23 27 28 28 27 24 23 25 26 26 24 22 22 22 21 17 12 10 6 3 3 3 3 4 3 2 1 0 1 1 1 2 2 2 3 2 1
0 0 0 0 0 0 1 3 6 12 18 20 22 23 24 25 24 20 18 18 18 18 19 19 20 19 17 12 9 9 8 6 7 7 5 5 3 1 1 2 2 2 2 1 1 1 2 2 2
0 0 0 0 0 1 4 6 8 11 14 17 19 19 18 17 17 16 16 15 14 13 14 16 17 18 15 11 8 9 9 9 10 10 8 5 3 2 3 3 2 2 2 0 0 0 1 2 1
0 0 0 0 0 1 4 6 7 7 9 11 13 11 8 6 7 8 9 10 11 10 10 12 13 14 14 13 10 7 7 8 9 9 8 6 4 4 4 2 1 1 1 0 0 0 1 1 0
0 0 0 0 0 1 2 3 3 3 4 5 6 5 3 1 1 2 3 4 6 7 6 7 8 8 9 10 9 6 4 5 6 5 5 5 5 5 4 2 1 0 0 0 0 1 2 1 0
0 0 0 0 0 0 1 1 0 0 2 3 3 4 3 1 0 0 1 2 3 3 3 2 2 3 3 4 4 3 3 3 3 2 1 2 2 3 3 2 1 0 0 0 0 0 1 0 0
0 0 0 0 0 0 0 0 0 1 2 3 3 2 1 0 0 0 0 1 2 2 1 0 0 0 0 0 1 1 2 2 2 1 0 0 0 1 2 1 0 0 0 0 0 0 0 0 0
0 0 0 0 0 0 0 0 0 1 2 3 2 1 0 0 0 0 0 0 1 1 0 0 0 0 0 0 0 0 1 1 1 0 0 0 0 0 0 0 0 0 0 0 0 0 0 0 0
0 0 0 0 0 0 0 0 0 0 1 2 1 0 0 0 0 0 0 0 0 0 0 0 0 0 0 0 0 0 0 0 0 0 0 0 0 0 0 0 0 0 0 0 0 0 0 0 0
0 0 0 0 0 0 0 0 0 0 0 0 0 0 0 0 0 0 0 0 0 0 0 0 0 0 0 0 0 0 0 0 0 0 0 0 0 0 0 0 0 0 0 0 0 0 0 0 0
0 0 0 0 0 0 0 0 0 0 0 0 0 0 0 0 0 0 0 0 0 0 0 0 0 0 0 0 0 0 0 0 0 0 0 0 0 0 0 0 0 0 0 0 0 0 0 0 0
0 0 0 0 0 0 0 0 0 0 0 0 0 0 0 0 0 0 0 0 0 0 0 0 0 0 0 0 0 0 0 0 0 0 0 0 0 0 0 0 0 0 0 0 0 0 0 0 0
0 0 0 0 0 0 0 0 0 0 0 0 0 0 0 0 0 0 0 0 0 0 0 0 0 0 0 0 0 0 0 0 0 0 0 0 0 0 0 0 0 0 0 0 0 0 0 0 0
0 0 0 0 0 0 0 0 0 0 0 0 0 0 0 0 0 0 0 0 0 0 0 0 0 0 0 0 0 0 0 0 0 0 0 0 0 0 0 0 0 0 0 0 0 0 0 0 0
0 0 0 0 0 0 0 0 0 0 0 0 0 0 0 0 0 0 0 0 0 0 0 0 0 0 0 0 0 0 0 0 0 0 0 0 0 0 0 0 0 0 0 0 0 0 0 0 0

GEFSSGP_con_prob3kmehi_084.txt.gz
EHI
0 0 0 0 0 0 0 0 0 0 0 0 0 0 0 0 0 1 4 5 8 25 38 30 15 7 3 1 2 5 10 14 13 9 7 5 4 2 1 0 0 0 0 0 0 0 0 0 0
0 0 0 0 0 0 0 0 0 0 0 0 0 0 0 0 0 1 3 5 10 26 37 31 19 10 5 3 3 6 11 13 11 8 7 5 4 2 1 0 0 0 0 0 0 0 0 0 0
0 0 0 0 0 0 0 0 0 0 0 0 0 0 0 0 0 1 2 4 10 22 34 36 26 14 7 4 4 6 9 10 9 7 6 4 3 2 1 0 0 0 0 0 0 0 0 0 0
0 0 0 0 0 0 0 0 0 0 0 0 0 0 1 2 2 2 3 4 8 14 26 39 33 16 7 5 5 7 7 7 7 7 5 3 1 1 0 0 0 0 0 0 0 0 0 0 0
0 0 0 0 0 0 0 0 0 0 0 0 0 0 2 5 6 5 4 4 6 8 20 39 38 20 9 6 5 7 8 7 7 6 5 4 2 1 1 1 0 0 0 0 0 0 0 0 0
0 0 0 0 0 0 0 0 0 0 0 0 0 0 4 9 10 8 5 3 3 5 16 34 35 20 10 7 5 6 8 10 8 6 5 5 3 1 1 1 0 0 0 0 0 0 0 0 0
0 0 0 0 0 0 0 0 0 0 0 0 0 0 6 16 21 17 9 3 2 3 10 21 22 14 8 7 6 6 8 10 9 6 4 3 2 1 1 1 0 0 0 0 0 0 0 0 1
0 0 0 0 0 0 0 0 0 0 0 0 0 0 11 31 42 35 22 11 5 4 5 8 9 7 5 6 7 8 8 8 8 5 3 1 1 0 0 0 1 0 0 0 0 0 0 1 2
0 0 0 0 0 0 0 0 0 0 0 0 1 4 20 49 63 57 43 28 19 12 8 6 5 5 4 4 7 9 10 9 7 5 3 2 1 0 0 1 3 2 0 0 0 0 0 1 2
0 0 0 0 0 0 0 0 0 0 1 1 4 10 28 53 68 69 60 48 37 27 18 12 9 7 4 4 7 9 11 12 10 8 8 7 5 2 2 2 3 2 0 0 0 0 0 1 1
0 0 0 0 0 0 0 0 0 1 1 3 6 14 27 44 58 66 64 59 53 41 28 22 20 17 14 12 11 13 15 17 16 14 15 16 14 10 7 5 4 2 2 2 2 2 2 1 1
0 0 0 0 0 0 0 0 1 2 2 3 7 14 24 33 44 56 61 59 56 47 36 32 35 35 32 30 27 24 23 22 22 23 24 25 25 19 15 13 10 7 7 7 6 6 5 2 2
0 0 0 0 0 0 0 1 2 4 5 7 11 19 27 32 38 47 54 53 50 44 38 38 44 46 48 49 44 37 34 29 25 26 27 27 27 24 21 21 18 14 13 11 8 7 6 5 5
0 0 0 0 0 0 0 2 4 6 9 15 23 33 40 43 45 47 48 46 41 35 32 35 39 45 52 55 51 45 39 34 29 27 24 23 24 25 26 25 21 18 16 14 9 6 6 7 6
0 0 0 0 0 0 1 3 7 9 13 21 32 42 51 55 54 51 49 46 41 33 29 30 31 37 48 53 50 43 35 32 31 29 24 21 22 25 28 25 21 19 17 15 12 8 6 5 4
0 0 0 0 0 0 1 4 8 11 15 23 30 37 46 52 52 50 48 47 44 38 37 35 31 32 40 45 43 37 30 27 26 25 23 21 19 21 23 23 20 19 17 15 12 9 7 5 4
0 0 0 0 0 0 0 4 9 12 16 21 22 27 34 39 40 40 40 40 40 41 44 42 36 33 34 34 33 30 27 25 21 18 16 16 14 13 16 19 18 17 15 12 9 10 9 6 4
0 0 0 0 0 0 1 3 8 12 15 17 17 19 22 23 24 26 28 29 31 36 40 39 35 30 26 23 21 21 20 19 16 12 9 10 9 9 11 15 16 16 15 12 9 9 9 6 4
0 0 0 0 0 0 1 2 6 9 11 12 12 12 12 12 13 15 17 18 22 27 30 29 25 20 17 14 12 10 9 8 8 6 5 7 7 7 9 12 16 17 16 14 10 8 5 4 5
0 0 0 0 0 0 0 2 5 6 7 8 9 9 8 9 10 10 10 12 15 19 19 16 12 11 10 9 5 3 2 2 2 3 4 6 7 6 6 10 15 16 15 11 8 4 2 2 3
0 0 0 0 0 0 0 3 7 7 6 6 7 7 7 7 7 6 6 7 8 9 9 7 5 5 5 4 2 1 1 1 1 1 3 4 5 5 5 6 9 10 8 5 4 3 2 1 1
0 0 0 0 0 0 0 3 8 9 7 6 5 4 3 3 2 2 3 3 2 2 2 3 3 2 1 0 0 0 0 1 1 0 1 2 3 3 2 2 3 4 3 3 3 4 4 3 2
0 0 0 0 0 0 0 2 6 9 8 6 3 2 1 1 1 1 1 1 0 0 0 1 2 1 0 0 0 0 0 0 0 0 0 1 1 1 0 0 1 2 2 2 3 5 6 6 7
0 0 0 0 0 0 0 3 8 11 8 4 2 1 1 1 0 0 0 0 0 0 0 0 1 1 0 0 0 0 0 0 0 0 0 0 0 0 0 0 1 2 2 1 3 5 5 7 9
0 0 0 0 0 0 0 4 11 11 5 2 0 0 0 0 0 0 0 0 0 0 0 0 1 1 0 0 0 0 0 0 0 0 0 0 0 0 0 0 0 1 1 1 3 5 4 4 7
0 0 0 0 0 0 0 4 9 7 2 0 0 0 0 0 0 0 0 0 0 0 0 0 0 0 0 0 0 0 0 0 0 0 0 0 0 0 0 0 0 0 0 0 2 3 2 3 4
0 0 0 0 0 0 0 2 3 2 1 0 0 0 0 0 0 0 0 0 0 0 0 0 0 0 0 0 0 0 0 0 0 0 0 0 0 0 0 0 0 0 0 0 0 1 2 2 3
0 0 0 0 0 0 0 1 1 0 0 0 0 0 0 0 0 0 0 0 0 0 0 0 0 0 0 0 0 0 0 0 0 0 0 0 0 0 0 0 0 0 0 0 0 0 1 1 2
0 0 0 0 0 0 0 0 0 0 0 0 0 0 0 0 0 0 0 0 0 0 0 0 0 0 0 0 0 0 0 0 0 0 0 0 0 0 0 0 0 0 0 0 0 0 0 0 1
0 0 0 0 0 0 0 0 0 0 0 0 0 0 0 0 0 0 0 0 0 0 0 0 0 0 0 0 0 0 0 0 0 0 0 0 0 0 0 0 0 0 0 0 0 0 0 0 0

GEFSSGP_con_prob3kmehi_090.txt.gz
EHI
1 1 0 2 7 11 7 2 0 0 0 0 0 0 1 2 2 1 3 25 63 73 59 59 60 42 20 9 5 2 1 1 1 0 0 0 0 0 0 0 0 0 0 0 0 0 0 0 0
1 0 1 5 10 8 3 1 0 0 0 0 0 0 1 1 1 2 7 33 65 66 48 52 59 46 25 12 6 4 3 2 2 1 1 1 1 0 0 0 0 0 0 0 0 0 0 0 0
0 0 1 7 11 6 0 0 0 0 0 0 0 1 2 1 0 4 13 39 61 53 40 52 62 52 31 16 9 7 5 4 3 3 2 3 2 1 1 2 1 0 0 0 0 0 0 0 0
0 0 1 5 6 3 0 0 0 0 1 1 1 3 4 2 2 7 15 35 50 46 42 56 65 56 35 17 10 8 6 4 3 3 4 4 4 3 4 4 2 0 1 1 1 0 0 0 0
0 0 2 2 1 0 0 0 0 1 2 2 3 8 8 4 4 8 13 25 39 47 51 57 63 55 35 17 8 6 5 3 1 2 5 6 5 5 7 8 6 4 4 4 4 2 1 0 0
0 0 1 1 0 0 0 0 0 1 3 4 6 10 11 6 5 7 11 17 33 53 59 56 56 50 33 16 7 3 2 1 0 2 5 6 6 6 9 12 11 9 10 10 8 6 3 1 0
0 0 0 0 0 0 0 0 0 1 2 4 7 12 13 8 4 6 8 13 33 58 62 52 48 43 29 15 7 3 1 1 0 1 2 4 5 6 8 12 15 17 17 16 13 9 6 4 2
0 0 0 0 0 0 0 0 0 0 2 5 10 16 16 10 4 4 8 12 32 57 62 51 46 39 25 13 10 8 6 4 2 1 1 2 3 5 7 12 19 23 22 20 17 13 10 8 7
0 0 0 0 0 0 0 0 0 1 4 8 14 19 18 10 4 5 8 14 32 56 62 54 51 42 24 16 20 18 13 10 8 5 5 4 4 4 8 19 31 33 29 24 21 18 15 12 8
0 0 0 0 0 0 0 0 1 3 9 14 17 17 15 9 8 10 13 23 43 59 60 58 60 49 27 26 36 28 20 23 18 14 18 16 10 7 13 31 49 50 41 32 26 23 19 12 7
0 0 0 0 0 0 0 1 3 7 12 16 18 16 15 14 15 21 26 39 59 62 54 59 67 56 36 40 50 38 33 42 37 30 36 33 23 17 23 44 62 63 53 40 33 29 22 11 6
0 0 0 0 0 0 0 1 5 10 13 17 22 25 25 26 29 35 41 53 64 61 52 59 69 65 54 55 59 50 47 56 55 53 54 50 42 36 39 55 67 66 58 48 40 37 28 17 12
0 0 0 0 0 0 0 2 7 12 15 21 30 36 39 42 47 52 56 62 67 63 58 63 71 73 71 71 69 61 59 62 66 70 70 66 63 59 59 66 70 64 58 53 49 45 39 30 23
0 0 0 0 0 0 1 4 10 14 19 28 38 45 52 58 64 68 71 73 71 67 67 72 75 78 79 78 73 68 65 67 70 74 75 74 73 73 72 71 68 62 56 53 51 49 46 40 33
0 0 0 0 0 0 1 6 12 17 24 35 45 53 61 67 71 75 78 77 74 72 74 77 77 77 79 78 73 68 65 67 71 73 73 72 71 72 71 67 63 60 56 51 47 45 44 38 32
0 0 0 0 0 0 1 6 12 19 30 42 49 53 57 62 67 70 73 74 75 75 77 75 73 73 74 73 70 65 61 63 67 69 66 62 61 60 58 56 55 54 50 44 39 36 33 29 26
0 0 0 0 0 0 3 9 14 22 35 46 47 44 42 46 52 56 60 65 69 71 71 70 69 69 67 65 63 61 57 56 58 57 51 46 43 41 40 41 41 39 36 34 29 26 25 23 22
0 0 0 0 0 1 6 13 18 23 34 42 40 34 31 32 36 38 41 47 53 59 64 66 67 66 62 60 58 54 50 46 46 42 34 29 26 24 25 26 26 25 25 24 21 19 19 18 16
0 0 0 0 1 2 8 16 21 25 30 34 33 29 25 24 24 24 25 30 37 46 54 58 59 56 54 55 52 46 41 38 34 27 20 16 14 14 15 17 18 19 18 17 14 12 12 11 8
0 0 0 0 1 4 10 19 25 27 27 26 25 22 18 17 17 17 17 19 25 31 37 43 46 44 41 41 37 32 29 27 23 18 13 9 8 7 8 11 15 15 14 12 10 9 9 7 4
0 0 0 0 1 4 11 21 29 28 22 17 15 13 10 10 12 13 13 14 16 18 21 27 33 33 29 25 20 16 15 15 14 11 8 7 5 4 5 7 10 11 10 9 8 8 8 5 2
0 0 0 0 0 3 7 16 25 24 15 8 7 6 5 5 7 9 9 9 8 8 11 17 23 24 20 16 11 8 7 8 7 5 4 5 4 3 4 4 6 8 6 5 5 6 5 3 1
0 0 0 0 0 1 2 8 15 16 11 6 5 4 3 3 4 6 6 6 4 3 5 12 17 18 17 14 10 7 5 4 3 2 2 3 3 2 2 3 4 4 3 2 2 2 2 1 0
0 0 0 0 0 0 0 2 4 7 7 7 6 3 2 2 3 4 5 4 3 2 3 9 17 21 20 17 12 7 4 3 2 1 2 2 1 1 1 1 1 1 1 1 1 1 1 0 0
0 0 0 0 0 0 0 0 1 2 4 5 3 1 1 1 2 3 3 4 3 3 4 8 18 24 22 18 14 9 5 3 2 2 2 2 1 0 0 0 0 0 0 0 0 1 1 0 0
0 0 0 0 0 0 1 2 2 1 1 2 1 1 0 1 2 3 2 2 2 4 6 9 16 22 22 18 15 11 8 6 3 1 1 1 0 0 0 0 0 0 0 0 0 0 0 0 0
0 0 0 0 0 0 1 3 2 1 0 1 1 1 0 1 2 2 2 2 2 4 7 8 12 16 17 16 13 10 8 7 3 1 0 0 0 0 0 0 0 0 0 0 0 0 0 0 0
0 0 0 0 0 0 1 2 1 0 0 0 1 1 0 0 1 2 2 3 3 3 4 6 8 10 11 12 11 7 6 6 3 1 1 1 0 0 0 0 0 0 0 0 0 0 0 0 0
0 0 0 0 0 0 0 0 1 0 0 0 0 0 0 0 0 1 2 3 3 2 2 3 4 5 7 7 7 5 5 4 2 2 2 2 1 0 0 0 0 0 0 0 0 0 0 0 0
0 0 0 0 0 0 0 0 1 0 0 0 0 0 0 0 0 0 1 2 2 1 1 1 3 4 5 4 4 4 3 2 1 1 1 2 2 1 0 0 0 0 0 0 0 0 0 0 0